GEFSSE_500_meanwind_096.txt.gz
Wind_Speed
11 12 12 13 12 12 11 11 10 11 11 10 9 7 6 5 4 2 1 1 1 2 2 2 3 3 2 2 2 2 2 2 2 3 3 4 4 5 5 5 4 4 5
11 12 13 13 13 12 11 11 11 12 11 10 9 8 7 6 5 4 2 2 2 2 2 2 2 2 2 2 2 2 2 1 2 2 3 3 4 4 4 5 5 5 5
10 12 13 14 13 12 12 12 12 13 13 12 11 10 9 8 7 5 4 3 3 3 3 2 2 2 2 2 2 2 1 2 2 2 3 3 4 4 4 5 5 5 5
11 12 14 13 13 12 12 12 13 14 14 13 12 11 10 9 8 7 6 5 5 4 4 4 4 3 3 3 2 2 2 2 3 3 3 3 4 4 4 5 5 5 5
11 12 13 13 13 13 13 13 13 14 14 14 13 13 12 11 10 9 7 7 6 6 5 5 5 4 4 4 3 3 3 3 3 3 3 4 3 4 4 5 5 5 5
12 13 13 14 13 13 13 13 14 15 15 15 15 14 13 12 11 10 9 8 8 7 7 6 6 5 5 4 4 4 4 3 4 4 4 4 4 4 5 5 5 5 5
12 13 13 14 14 14 14 15 15 15 16 17 16 16 15 14 13 12 10 9 9 8 8 8 7 6 6 5 5 5 4 4 5 5 5 5 5 5 6 6 6 6 6
12 13 14 15 15 15 15 16 16 16 16 17 17 16 15 15 14 13 12 11 10 10 9 9 8 7 7 6 6 5 6 6 6 6 6 6 6 7 7 7 7 7 7
12 12 14 14 15 16 17 17 17 17 17 17 17 17 17 16 15 14 13 12 12 11 10 10 9 9 8 8 7 7 7 7 7 7 8 8 7 8 8 8 8 8 8
13 14 15 15 16 17 17 18 18 18 18 17 17 18 18 17 17 16 15 14 13 12 12 11 11 10 10 9 9 9 9 9 9 9 9 9 9 9 9 9 10 10 10
15 15 16 16 17 16 16 18 18 18 18 18 18 18 18 18 18 17 16 15 15 14 13 13 12 12 12 11 11 10 10 10 10 11 11 11 11 12 12 12 12 12 12
16 17 17 16 17 16 16 18 19 19 20 19 19 19 19 19 19 18 17 17 16 16 15 14 14 14 13 13 13 12 12 12 12 13 13 13 13 14 14 14 15 15 15
18 18 18 19 19 18 17 18 19 20 20 20 20 20 20 21 20 19 19 19 18 18 17 16 16 16 15 15 14 14 14 14 14 15 15 15 15 16 16 17 17 18 18
21 21 20 19 20 19 19 20 20 20 20 21 21 22 22 22 22 21 21 20 20 19 18 18 17 17 17 16 16 16 16 16 16 16 16 17 17 18 18 18 18 18 18
23 22 22 20 20 21 21 21 21 21 21 22 23 24 24 23 23 22 22 22 22 21 20 20 19 19 18 18 18 18 18 18 18 18 18 18 18 19 18 18 19 19 19
24 24 24 24 23 23 23 23 23 23 23 23 24 25 26 25 24 24 23 23 24 23 22 22 21 21 20 20 20 20 20 20 20 20 20 20 20 19 19 19 20 20 20
26 26 25 26 26 24 25 25 25 24 25 25 25 26 27 27 27 26 25 25 25 24 23 24 24 23 23 22 21 22 22 22 22 22 22 22 22 22 22 22 22 23 23
28 27 27 26 26 27 26 27 26 26 27 27 27 27 28 28 28 28 27 26 26 26 26 26 25 25 24 24 23 23 24 24 24 25 25 25 25 25 24 25 25 26 27
29 29 28 27 26 27 28 27 27 27 27 28 27 28 29 30 30 30 28 27 27 27 27 27 27 27 26 26 25 25 25 26 26 26 27 27 27 27 28 28 29 29 30
31 30 29 28 27 28 28 28 28 28 28 28 27 27 29 30 30 30 29 29 29 29 29 29 29 29 28 28 28 27 27 27 28 28 29 29 29 30 30 31 31 32 33
32 31 31 30 29 29 28 27 28 27 27 28 27 27 28 29 30 30 31 30 29 29 29 30 29 29 29 29 29 29 28 28 29 30 30 31 31 31 32 33 34 34 35
33 32 31 30 30 30 30 29 29 28 29 29 29 28 28 28 29 30 32 31 29 28 28 29 29 30 30 30 30 30 30 30 30 30 31 33 34 34 34 34 35 36 37
32 32 32 30 30 30 30 30 29 29 29 27 28 28 29 30 28 28 30 30 30 30 30 30 31 31 31 31 30 31 32 32 32 33 33 34 34 34 34 36 37 38 39
31 31 31 30 31 30 29 29 28 27 27 26 27 28 27 29 30 29 29 30 31 31 31 30 30 30 30 30 30 30 31 32 33 33 33 34 35 36 37 38 39 41 42
29 30 30 31 30 29 28 28 27 26 25 26 26 27 28 29 30 30 30 31 30 30 30 31 30 31 31 31 31 32 33 33 33 33 35 36 37 38 39 41 42 43 44
28 29 29 30 30 29 28 26 26 27 26 26 27 28 28 28 30 31 31 30 30 30 31 31 31 31 32 32 33 33 34 35 35 36 38 38 39 40 41 42 44 46 47

GEFSSE_500_meanwind_102.txt.gz
Wind_Speed
13 13 14 14 14 14 14 13 13 13 12 13 13 12 12 12 11 10 8 7 5 4 4 3 3 2 1 1 1 1 1 1 2 2 3 3 4 5 5 4 4 4 4
12 14 14 15 15 15 15 15 14 14 14 14 14 14 13 13 12 11 10 8 7 5 5 4 3 2 2 2 2 2 2 1 1 2 2 3 4 4 4 4 4 4 4
14 15 15 15 16 16 16 16 16 15 15 15 15 15 15 14 13 13 11 10 8 7 6 5 4 3 3 3 3 2 2 2 2 2 2 3 3 3 3 4 4 4 4
15 16 17 16 16 17 17 17 16 16 15 15 15 16 16 16 15 14 13 11 10 8 7 6 5 4 3 3 3 3 3 3 2 2 2 2 3 3 3 3 4 4 4
17 17 16 16 17 18 18 17 17 17 16 16 16 16 16 17 16 16 14 13 11 10 9 7 6 5 4 4 4 4 4 3 3 2 2 2 2 3 3 3 4 4 4
17 17 17 16 17 18 19 18 17 17 17 17 17 17 17 18 17 17 15 14 13 11 10 9 8 6 6 6 6 5 5 5 4 3 2 3 3 3 4 4 4 5 4
17 17 17 17 17 18 18 18 17 18 18 17 18 18 18 19 18 18 17 16 14 13 12 10 9 8 7 7 7 7 6 6 5 4 4 4 4 5 5 5 6 6 6
17 16 17 17 17 19 20 19 18 19 19 19 19 18 19 19 19 19 18 17 16 14 13 12 10 9 9 8 8 8 7 7 6 5 5 5 5 6 6 7 7 7 7
17 16 16 17 17 18 20 20 19 19 20 20 20 20 20 20 20 20 20 19 17 16 15 13 12 11 10 10 9 9 8 8 8 6 6 6 7 7 7 7 7 8 8
17 18 18 18 18 19 19 19 19 19 20 21 21 21 22 22 21 21 21 20 19 18 16 15 14 13 12 11 11 10 10 10 9 8 8 8 8 8 9 9 9 10 10
18 18 19 20 19 19 19 19 19 20 20 21 21 22 23 23 22 22 22 22 21 19 18 17 16 15 14 13 12 12 12 11 10 10 9 9 9 10 10 11 11 11 12
19 19 20 20 20 20 20 20 21 21 21 22 22 23 24 24 23 23 23 23 22 21 20 19 17 16 15 15 14 14 14 13 11 11 10 11 11 12 12 13 13 13 14
22 21 22 21 21 22 22 22 22 21 22 22 22 24 25 25 25 25 25 24 23 22 21 20 19 18 17 16 16 16 16 15 13 13 13 13 13 13 14 14 14 15 15
26 23 23 22 22 22 22 23 23 22 23 24 23 24 24 25 26 25 26 25 24 23 22 22 21 20 19 18 18 18 17 17 16 15 16 15 16 16 15 15 15 15 15
27 25 24 23 23 24 24 24 24 23 23 25 25 24 25 26 26 26 26 25 24 24 23 23 22 22 20 19 19 19 19 19 18 17 17 17 17 17 17 17 17 16 17
30 28 25 25 25 25 25 24 24 24 24 25 25 26 24 25 26 26 26 25 25 24 24 25 24 23 22 21 21 21 20 21 21 20 19 19 19 19 19 18 18 18 19
32 29 27 27 26 26 26 26 24 25 25 24 24 25 25 24 24 25 26 26 25 25 27 27 26 25 24 23 23 23 23 23 23 22 21 21 21 21 21 21 21 21 21
31 31 31 29 28 27 28 28 26 25 26 25 24 24 23 24 25 26 25 26 26 26 27 28 27 26 26 25 25 26 25 25 24 23 23 23 23 23 24 24 24 23 24
33 32 32 32 30 29 29 29 29 28 28 27 25 24 25 25 25 26 26 27 27 27 29 29 28 28 27 27 27 27 27 25 25 26 25 25 25 25 25 26 27 27 27
34 34 34 34 33 32 32 30 30 28 27 27 25 25 26 26 25 24 24 25 27 28 29 30 30 29 29 30 29 28 28 28 27 27 27 27 27 27 27 28 29 29 30
34 35 35 35 34 33 33 32 30 29 28 27 27 26 26 25 24 24 24 25 27 29 30 29 29 29 29 29 28 28 29 28 28 28 29 29 30 30 30 30 31 32 32
34 35 36 36 35 34 34 33 32 30 29 27 26 27 27 26 26 26 27 27 28 30 32 31 30 29 29 29 29 28 29 30 29 29 31 32 32 33 33 33 34 34 34
34 35 37 36 35 34 33 32 32 31 30 29 28 29 29 28 28 27 27 27 28 29 30 31 31 31 31 31 31 30 30 30 31 31 32 33 35 35 36 36 36 36 36
33 34 35 35 34 34 33 33 33 32 31 30 29 29 28 28 28 28 28 28 28 29 30 31 31 31 32 33 32 32 32 32 33 33 34 35 36 36 37 36 36 37 38
31 32 34 34 33 33 32 33 32 32 32 31 30 29 29 28 29 28 29 30 29 29 31 31 31 32 32 32 32 33 34 35 35 35 35 36 36 37 38 38 38 39 40
28 30 31 31 31 32 32 33 33 32 31 31 30 30 28 29 29 28 29 29 29 29 30 31 32 33 33 33 33 33 34 34 34 35 35 35 35 36 37 38 39 41 42

GEFSSE_500_meanwind_108.txt.gz
Wind_Speed
9 7 5 5 6 8 10 10 11 12 12 13 13 13 12 11 11 10 10 10 9 9 8 7 7 6 5 4 4 3 2 2 2 1 1 0 1 1 2 3 3 4 4
10 7 6 7 7 8 10 12 13 13 14 14 14 13 13 12 12 12 12 11 11 10 9 8 8 7 6 5 4 3 3 2 2 2 1 0 1 1 2 3 3 4 4
9 8 8 8 9 10 11 13 14 15 15 15 15 15 14 14 13 13 13 12 12 12 11 10 9 8 7 6 5 4 4 3 2 2 1 0 1 2 2 2 3 3 3
10 10 10 10 11 11 12 14 15 16 16 17 16 16 16 15 14 14 14 14 13 13 12 11 10 9 8 7 6 5 4 4 3 2 2 1 1 1 2 2 2 2 2
12 12 11 12 12 13 13 14 15 16 17 18 18 17 17 16 16 15 15 15 14 14 13 12 11 10 9 8 7 6 5 4 4 4 2 2 1 1 1 1 1 1 1
13 12 12 12 13 14 14 15 16 17 18 18 18 18 18 17 17 16 16 15 15 15 14 13 12 11 10 9 8 7 6 5 5 4 4 3 2 1 1 1 1 1 1
14 13 13 13 13 13 15 16 17 18 18 19 18 18 18 18 18 17 16 16 16 15 15 15 14 13 12 11 9 8 7 7 6 5 5 5 4 3 2 2 2 2 2
15 14 14 14 13 13 14 16 17 18 19 20 20 20 19 18 18 17 17 17 16 16 16 16 15 14 13 12 10 9 8 8 7 7 6 6 6 5 4 3 3 3 3
16 15 15 14 14 14 15 16 18 18 18 19 20 20 20 20 19 18 18 17 17 17 17 17 16 15 14 13 12 10 9 8 8 7 7 8 7 6 6 5 4 4 4
17 17 17 16 15 16 16 17 18 18 19 19 20 20 20 20 20 20 19 18 18 18 18 18 17 17 16 14 13 12 10 10 10 9 10 9 8 8 7 7 6 6 6
19 19 19 19 18 17 17 17 18 19 20 19 19 20 20 20 20 20 19 19 19 19 19 19 18 18 17 16 15 13 12 11 11 11 11 11 10 9 9 8 8 8 8
22 22 22 22 21 20 19 18 19 19 20 21 20 20 21 21 21 21 21 20 21 21 21 20 20 20 19 18 16 14 13 12 12 12 12 12 12 11 11 10 10 10 9
23 24 22 22 23 23 22 21 20 20 20 21 21 20 20 21 21 21 21 21 22 22 22 22 22 21 20 19 18 16 15 13 13 14 14 14 14 13 13 12 12 12 11
25 25 25 24 23 23 22 22 22 21 21 21 22 21 20 20 21 21 21 22 22 23 23 23 23 23 22 20 19 18 16 15 15 15 16 16 15 14 14 14 14 13 13
27 27 27 26 24 23 22 23 23 22 22 22 22 22 21 21 21 22 23 24 24 24 25 25 24 24 23 22 21 19 18 17 17 17 17 18 17 17 16 16 16 15 14
28 28 27 26 26 25 24 24 25 23 22 22 24 23 23 23 23 23 23 24 24 24 26 26 24 24 23 22 21 21 20 19 19 19 20 19 19 19 18 18 18 17 17
30 30 27 27 28 27 25 25 25 24 23 23 23 23 23 23 23 22 22 22 24 24 25 26 26 24 23 23 22 22 21 20 21 21 21 20 20 20 20 20 19 19 19
32 31 28 28 28 29 28 26 26 24 24 25 25 24 23 23 23 22 22 21 22 22 24 24 25 24 24 24 24 24 23 23 23 23 23 23 22 22 22 21 21 21 22
32 32 30 30 28 29 29 28 27 25 26 26 25 24 24 24 23 23 22 22 21 22 24 24 23 24 24 25 25 24 24 24 24 24 24 24 24 24 23 23 23 24 24
31 31 32 31 29 29 29 29 27 27 27 27 26 25 25 25 23 23 23 23 22 22 23 24 25 25 24 25 25 26 26 26 25 25 25 25 24 24 25 24 25 25 25
31 31 31 29 29 29 28 28 28 27 27 28 27 25 24 25 24 23 24 24 24 23 23 24 25 25 25 26 27 27 27 26 26 27 27 27 26 26 26 26 27 27 28
29 30 30 30 29 30 30 29 29 28 29 29 27 27 27 25 23 23 24 24 24 24 24 24 25 26 27 27 27 28 29 29 29 29 28 27 27 28 28 29 29 30 30
28 28 28 29 31 31 31 30 30 29 28 28 27 28 27 26 25 24 25 24 24 24 24 24 25 25 27 28 29 30 30 30 30 30 30 29 29 30 31 31 31 32 32
27 28 28 29 30 30 30 30 30 30 29 29 28 28 28 27 26 24 25 25 25 25 25 24 25 26 27 27 28 30 31 31 32 32 32 32 33 33 33 32 33 33 33
26 27 28 28 29 29 29 30 30 29 28 29 29 28 28 27 25 25 25 24 25 25 26 25 25 26 27 28 28 28 29 30 31 33 34 35 35 35 34 35 35 35 35
26 26 27 27 28 28 29 29 29 30 29 29 28 28 27 26 25 25 24 25 26 26 27 28 27 26 27 29 29 30 31 32 31 32 33 35 36 36 36 36 35 36 36

GEFSSE_500_meanwind_114.txt.gz
Wind_Speed
4 3 3 4 5 6 6 6 6 6 6 6 6 5 5 5 5 5 6 7 8 9 10 10 10 9 9 8 7 7 6 5 5 4 4 4 4 4 3 3 3 2 2
5 5 5 6 6 7 7 7 7 7 7 7 7 6 6 6 6 6 6 7 8 9 10 10 10 9 9 8 7 7 6 6 5 4 4 3 3 3 3 3 2 2 2
6 6 6 7 7 8 8 8 9 9 9 9 8 8 8 7 7 7 6 7 8 8 9 9 9 9 9 8 7 7 6 6 5 4 4 3 3 3 3 3 2 2 2
7 7 7 9 9 10 10 10 10 10 10 10 10 9 10 9 9 8 8 8 8 8 8 8 9 9 9 8 7 7 7 6 5 5 4 4 3 3 3 3 3 3 3
9 9 9 10 11 12 12 12 11 11 11 11 11 10 10 10 10 9 9 9 9 8 8 8 8 8 8 8 8 7 7 6 6 5 5 4 3 3 3 3 3 3 3
11 11 11 12 12 13 13 13 12 12 12 13 12 12 12 12 12 12 11 10 10 10 9 9 9 9 9 8 8 8 7 6 6 6 6 5 4 3 3 3 3 4 4
12 12 11 11 11 11 13 14 14 13 13 14 14 14 14 14 14 14 13 12 12 12 11 10 10 9 9 9 9 8 7 7 7 7 7 6 6 5 4 4 3 4 4
13 12 11 11 12 11 12 12 13 13 14 15 15 15 16 16 15 15 15 14 14 13 12 11 11 11 10 10 10 9 9 8 8 8 8 8 7 5 5 4 4 4 4
15 13 12 11 11 12 12 13 14 14 14 15 16 16 16 16 17 17 17 16 16 15 13 12 12 12 11 11 11 10 10 9 9 9 9 8 8 6 6 5 5 5 5
17 15 13 11 12 13 13 14 15 15 15 16 17 17 17 17 17 18 18 18 17 16 15 14 13 13 13 12 12 11 11 11 11 10 10 9 9 8 7 7 7 7 7
17 17 16 14 13 13 14 15 15 17 17 17 17 17 18 18 18 18 19 18 18 18 17 16 15 15 14 14 13 13 12 12 12 12 11 11 11 10 9 9 9 8 7
19 18 18 16 16 16 15 16 16 17 17 18 18 18 19 18 19 19 19 19 19 18 18 18 17 16 16 16 15 14 14 14 14 14 13 13 12 12 11 10 10 10 9
21 20 19 18 18 18 17 17 18 18 19 20 21 20 20 20 19 20 20 20 20 19 20 19 19 18 17 17 17 16 16 16 16 15 15 15 14 13 13 13 12 11 11
24 23 20 19 20 19 19 19 19 19 20 21 21 21 21 20 20 21 21 21 21 21 22 21 20 20 19 19 19 18 18 18 18 17 17 16 16 16 15 14 14 13 13
24 23 22 22 21 21 21 21 20 21 22 22 23 23 21 20 20 21 21 22 21 22 23 23 22 21 21 20 20 20 20 20 21 20 19 18 18 17 17 16 16 15 15
23 23 22 22 21 21 22 22 23 23 23 24 24 25 24 23 22 22 23 23 23 23 23 24 23 23 23 22 22 23 23 22 21 22 22 21 20 19 19 19 18 18 18
24 23 23 22 22 22 23 23 24 24 25 25 26 26 25 24 24 23 24 24 24 23 23 23 25 25 23 23 23 24 24 24 23 23 24 23 23 22 21 21 21 20 20
24 24 23 23 23 23 24 23 24 25 26 27 27 26 26 25 25 25 25 25 25 24 25 24 24 23 23 24 24 25 25 25 25 24 24 23 23 23 23 23 22 22 22
24 24 24 23 24 24 24 23 25 27 26 27 27 27 27 27 27 27 27 26 26 26 25 26 26 25 25 24 25 25 26 25 26 25 25 24 24 24 24 24 24 24 24
25 26 25 24 25 25 24 24 25 25 25 26 27 27 27 27 29 29 28 28 28 27 27 27 27 27 26 26 26 26 27 27 27 26 26 26 26 25 25 25 26 25 25
25 25 24 24 24 25 25 24 24 25 26 26 27 27 27 27 28 28 28 27 27 28 28 28 27 26 26 27 27 27 27 27 26 26 26 26 26 26 26 26 26 26 27
23 24 24 24 24 24 25 25 25 26 26 27 28 29 29 29 29 29 29 28 28 28 28 28 28 27 26 27 28 27 27 28 28 28 28 29 29 29 29 29 30 30 30
24 24 24 24 24 25 25 25 25 26 27 28 28 28 30 30 29 28 28 28 28 27 27 27 28 27 27 27 27 28 28 28 29 29 30 31 32 32 32 31 31 31 31
25 26 26 26 24 24 25 25 26 26 26 27 28 28 30 30 30 29 28 29 29 28 27 28 29 28 28 28 28 29 29 30 31 31 31 32 32 32 33 33 33 33 33
25 25 25 25 25 25 25 25 26 27 27 27 28 28 29 29 29 29 30 30 28 28 29 29 28 27 28 29 29 29 30 30 31 32 32 33 33 32 33 33 34 35 34
24 23 23 23 24 25 25 25 26 26 26 26 26 26 27 28 27 27 28 28 28 28 28 28 27 27 28 28 28 29 30 31 31 31 32 32 32 31 32 33 34 35 35

GEFSSE_500_meanwind_120.txt.gz
Wind_Speed
5 6 6 6 6 6 7 8 9 9 9 9 9 8 7 5 4 4 3 2 2 2 3 3 4 4 4 4 4 4 3 3 2 2 3 3 4 4 4 4 4 4 5
5 6 6 6 6 6 7 8 9 9 10 9 9 8 7 6 5 4 3 1 0 0 1 2 2 2 3 3 3 3 3 2 2 2 2 2 3 3 4 4 4 4 4
5 6 6 7 7 7 8 9 10 10 10 10 9 9 8 7 7 6 4 3 2 2 2 1 1 1 2 2 2 2 2 2 1 1 1 1 2 2 2 3 3 2 3
4 5 6 7 8 8 9 10 10 11 11 11 10 9 9 9 8 8 6 5 4 4 3 3 3 2 2 2 1 2 2 2 1 1 1 1 1 1 1 2 2 2 2
5 5 5 6 7 8 9 10 11 11 12 11 11 11 11 10 9 9 8 7 6 6 5 5 4 4 3 3 2 2 2 2 2 2 2 2 1 1 1 1 1 1 1
6 5 6 6 7 9 9 11 12 12 12 13 13 13 12 12 11 10 10 9 8 8 7 7 6 6 5 5 4 4 3 3 3 3 3 3 3 2 2 2 1 1 1
7 7 7 7 8 9 10 11 12 12 13 13 14 13 13 13 13 12 12 11 10 10 9 9 8 8 7 7 6 5 5 4 4 5 5 5 5 4 4 3 3 2 2
7 8 8 8 9 9 10 11 12 13 13 14 14 14 14 14 13 13 13 13 12 12 11 11 11 10 9 8 8 7 7 6 6 6 6 6 6 6 5 5 4 3 3
8 9 9 9 10 10 11 12 12 13 13 13 14 15 15 14 14 14 14 14 14 14 13 13 12 12 11 10 9 9 8 8 8 8 8 8 8 7 7 7 6 5 5
11 10 10 10 11 11 12 12 13 14 15 14 15 15 15 16 15 15 16 16 15 15 15 15 14 14 13 12 11 11 10 10 10 10 10 10 9 9 9 9 8 7 6
12 12 12 12 13 13 13 13 14 15 15 15 16 17 17 17 17 17 17 16 16 16 16 16 16 16 15 14 14 13 13 12 12 12 12 11 11 11 10 10 9 9 8
14 14 14 14 13 14 15 15 16 16 16 17 17 18 18 19 18 18 18 17 17 17 17 17 17 17 17 16 16 15 15 15 15 14 14 14 13 12 12 12 11 10 10
16 16 16 15 15 15 16 17 18 19 19 19 19 20 20 19 20 20 19 19 19 19 19 18 18 18 18 18 18 17 17 17 17 17 16 15 15 14 14 13 13 13 12
19 18 17 17 17 17 17 18 18 19 20 21 21 22 22 21 21 21 21 21 21 21 21 21 21 20 20 20 19 19 19 19 19 18 18 17 17 17 16 15 15 15 14
20 20 20 19 18 18 18 19 19 20 20 22 24 24 23 22 22 23 23 23 22 22 22 22 22 22 21 21 21 21 21 21 21 20 20 20 19 19 19 18 17 17 16
21 22 21 20 20 20 20 20 21 21 22 22 24 25 25 25 24 25 25 25 24 24 24 24 24 23 23 22 22 22 22 22 22 22 22 21 21 21 21 20 20 19 19
22 22 21 21 21 20 21 21 22 23 23 24 24 25 26 27 27 26 26 26 26 26 26 26 26 25 24 24 24 24 23 23 23 24 24 23 23 22 22 22 22 21 20
22 22 22 22 21 21 21 22 22 23 24 25 26 27 26 26 26 27 27 27 28 27 28 28 28 27 26 25 25 25 24 25 25 25 25 25 25 24 25 24 24 23 23
22 23 23 22 22 22 23 23 24 24 25 26 27 27 28 27 26 27 28 28 29 29 29 30 29 29 28 28 27 26 26 26 26 26 26 26 26 26 27 27 25 25 25
23 23 23 23 23 24 24 24 25 25 25 26 27 28 29 28 27 28 29 30 30 29 30 30 30 30 30 29 28 27 27 28 27 27 27 27 27 27 28 27 26 26 26
23 23 24 24 24 24 25 25 25 26 26 27 27 28 29 29 28 28 28 29 31 31 31 32 31 31 30 30 30 29 28 28 28 28 28 28 29 28 29 29 29 28 28
22 23 24 25 26 26 26 26 26 27 27 28 28 29 28 28 29 29 29 29 30 31 32 33 33 32 31 31 31 31 30 30 29 29 30 30 31 31 32 32 31 30 30
22 22 23 24 26 26 26 26 26 27 27 28 29 29 29 29 29 29 30 31 31 31 31 32 32 32 32 31 32 31 31 30 31 31 31 31 32 32 32 34 34 33 33
22 23 24 24 25 25 26 26 26 27 28 28 29 29 29 30 30 31 31 31 32 32 32 32 32 32 32 32 32 33 32 31 31 31 32 33 32 33 33 34 35 35 35
23 23 24 24 25 26 26 27 27 27 28 28 29 28 28 29 30 31 31 32 32 32 33 33 33 32 31 32 32 32 32 32 31 31 31 32 33 33 34 34 35 36 37
24 24 25 25 25 26 26 27 27 27 28 28 28 28 28 29 30 30 31 32 32 32 32 32 31 31 31 31 32 32 31 31 32 31 31 33 33 34 35 36 36 37 38

GEFSSE_500_meanwind_126.txt.gz
Wind_Speed
8 8 8 7 6 6 7 7 8 8 8 8 8 8 8 8 8 7 6 5 4 3 3 2 1 0 1 1 1 1 2 2 2 2 3 3 3 4 4 5 5 5 5
9 9 9 9 8 8 9 9 9 9 9 9 10 10 10 10 9 9 8 7 6 5 4 4 3 2 2 1 1 0 1 1 1 1 2 2 2 3 3 4 4 4 4
11 11 11 11 10 10 10 10 10 10 11 11 11 11 11 11 11 11 10 9 8 7 6 5 5 4 3 3 2 2 1 1 1 1 1 1 1 2 2 3 3 3 4
12 12 11 12 12 12 12 12 12 12 12 12 12 12 12 12 12 12 12 11 10 9 8 7 6 6 5 4 4 4 3 2 2 2 1 1 0 1 1 2 2 2 3
13 13 12 12 12 12 13 13 13 13 13 13 13 13 13 13 14 14 14 12 12 11 10 9 8 7 6 6 6 5 5 4 3 3 3 2 1 1 1 1 1 1 1
14 14 13 13 13 13 13 13 13 14 14 15 15 14 14 15 15 15 15 14 13 12 11 10 10 9 8 8 7 7 7 5 5 4 4 4 3 2 2 1 0 0 0
14 14 13 13 13 14 14 14 14 14 15 16 16 16 15 15 15 16 16 15 15 14 13 13 11 10 10 10 9 9 8 7 7 6 6 5 5 4 3 2 2 1 1
15 14 13 13 14 14 14 14 14 15 15 16 16 16 17 17 17 17 17 16 16 15 15 14 13 13 12 12 11 11 10 10 9 8 8 7 7 6 5 4 4 3 3
14 14 13 13 13 13 14 14 14 15 15 16 16 17 17 17 18 18 17 17 17 16 16 15 15 15 14 13 13 13 12 11 11 10 9 9 8 8 7 6 6 5 5
15 14 13 13 12 13 14 15 16 16 16 16 17 18 18 18 18 18 18 18 18 17 17 17 17 17 16 16 15 15 14 14 13 11 10 11 10 10 10 9 8 7 7
16 15 13 13 14 14 14 15 16 17 18 18 18 19 19 19 19 19 19 19 19 19 19 19 18 18 18 17 17 17 16 16 15 13 13 13 12 11 11 11 10 9 9
17 16 14 14 14 15 15 17 17 18 19 19 20 20 20 21 21 21 20 20 21 20 20 20 20 19 19 19 18 18 18 18 17 15 14 15 14 13 13 13 12 12 11
17 15 14 15 15 15 17 18 18 19 20 20 21 21 22 22 22 22 22 22 22 22 22 22 21 21 21 20 20 19 19 19 19 17 17 17 17 16 15 15 14 13 13
16 16 14 16 16 16 18 19 19 19 20 20 21 22 23 23 23 22 22 23 22 22 23 23 23 23 22 21 21 20 20 19 20 19 18 19 19 18 17 17 17 16 15
18 15 15 16 16 17 19 19 20 20 21 21 22 22 23 23 23 24 24 23 23 23 23 24 24 23 22 21 21 21 22 21 21 20 19 20 20 20 20 19 19 18 18
18 17 17 18 18 19 20 21 22 22 22 23 23 23 23 24 25 26 26 25 24 24 24 25 24 24 23 23 22 22 23 23 23 22 22 21 21 22 22 22 20 20 20
18 18 18 19 19 20 20 21 23 24 24 25 25 25 25 24 25 25 25 26 27 26 26 26 25 25 25 25 25 24 24 24 24 23 24 23 24 24 23 22 22 22 21
20 20 19 19 20 21 22 23 23 25 26 26 26 26 26 26 26 26 27 27 28 27 27 27 26 26 27 27 26 25 25 25 25 25 25 25 25 24 23 23 23 23 23
21 21 21 21 21 22 23 24 24 25 26 27 26 26 27 27 27 28 29 29 29 30 29 29 28 28 27 28 28 28 27 26 26 26 26 26 25 24 24 24 24 25 24
22 22 22 22 23 23 24 25 26 26 27 28 28 28 28 28 29 29 30 30 31 30 30 30 31 30 29 29 29 28 28 28 27 28 28 27 26 25 25 25 26 26 25
22 22 22 23 24 25 26 26 27 28 28 29 29 29 30 30 30 30 31 31 32 32 32 32 31 30 30 31 31 30 29 29 28 29 29 28 27 27 27 27 27 27 26
22 23 24 25 26 26 27 27 27 28 29 30 30 30 31 31 31 31 32 33 33 33 33 33 33 32 32 32 32 32 32 31 30 30 30 29 28 29 29 28 28 28 28
23 24 25 25 27 27 28 28 28 29 30 30 31 31 32 32 32 32 33 34 34 33 33 33 33 32 32 33 33 32 31 31 31 31 31 31 30 30 31 30 30 30 29
25 25 26 27 28 28 28 29 29 30 31 31 32 32 32 32 31 32 32 33 34 33 32 32 32 32 31 32 32 32 32 32 32 31 31 31 31 31 32 32 32 32 32
26 27 28 28 29 29 29 30 30 30 31 31 31 32 32 31 31 31 31 31 32 31 31 31 32 32 31 31 31 32 32 33 32 31 30 31 31 31 31 32 32 33 32
26 27 28 29 29 30 30 31 31 31 31 30 31 31 31 31 31 31 31 31 31 31 31 31 32 31 31 31 32 32 32 32 31 31 31 30 31 31 31 32 32 32 32

GEFSSE_500_meanwind_132.txt.gz
Wind_Speed
6 6 5 4 5 5 5 6 6 6 7 7 7 8 8 8 8 9 8 8 8 8 7 7 6 6 5 5 4 3 2 2 2 2 2 2 1 1 2 2 3 4 5
7 7 7 6 7 7 7 7 7 7 8 9 9 9 9 9 9 10 10 9 9 9 9 8 8 7 7 6 5 4 3 3 3 2 2 2 1 1 1 2 2 3 4
9 9 8 8 8 8 8 9 9 9 9 10 10 11 11 11 11 11 11 11 11 10 10 10 9 9 8 7 6 5 4 4 3 3 3 2 2 1 1 1 1 2 3
11 11 11 10 10 9 9 10 10 10 10 11 11 11 11 12 12 12 12 12 12 12 12 12 11 10 9 8 7 6 5 5 4 4 3 3 2 2 2 1 1 1 2
12 12 13 12 11 11 11 11 11 11 12 12 12 12 12 13 13 13 13 13 13 14 13 13 12 12 11 9 8 7 6 6 5 5 4 4 4 4 3 2 2 2 2
13 13 14 13 13 13 12 12 13 13 13 13 13 13 14 14 14 14 14 14 14 15 14 14 13 12 12 11 10 9 8 7 6 6 6 6 5 5 5 4 3 3 2
14 14 14 14 13 13 14 14 14 14 14 14 14 14 14 15 15 15 15 15 15 15 16 16 15 14 13 12 11 10 9 8 8 7 8 8 8 7 7 6 5 4 3
15 14 15 15 14 14 15 15 15 15 15 15 15 15 15 16 16 16 16 16 16 17 16 17 17 16 15 14 13 12 11 10 9 9 9 9 9 9 8 8 7 6 5
16 15 15 15 15 15 16 16 16 16 16 16 15 16 16 16 16 16 17 17 17 18 17 17 17 17 16 15 15 14 13 12 11 11 11 11 10 10 10 9 9 8 7
18 16 16 16 16 15 16 16 16 16 16 16 16 16 17 17 17 17 18 18 18 18 18 18 18 18 18 17 16 16 15 14 13 13 13 12 12 12 11 11 11 10 9
17 16 15 16 16 16 16 17 17 17 17 17 17 17 18 18 18 18 18 18 19 20 19 19 19 19 19 19 18 18 17 16 15 15 15 14 14 14 14 14 13 12 11
17 16 17 16 16 16 16 17 17 17 17 17 18 18 19 19 19 20 19 19 20 20 21 21 21 21 21 20 20 19 19 18 17 16 16 16 16 16 15 15 15 14 14
17 16 16 17 17 17 17 18 17 17 17 18 18 18 19 20 20 21 20 20 20 21 21 21 21 21 21 21 21 21 21 19 18 18 18 18 17 17 17 17 16 16 15
17 14 13 14 16 17 16 17 17 18 19 19 20 20 20 21 22 22 23 22 20 21 20 20 21 21 21 21 21 21 21 21 20 20 20 19 19 18 18 18 18 18 17
16 14 15 14 14 16 17 18 18 19 18 19 20 20 21 21 22 23 23 23 21 21 21 21 21 22 22 22 22 22 22 22 21 21 21 20 20 20 19 19 19 19 19
18 15 14 14 13 14 14 14 16 18 18 20 20 20 20 21 22 22 22 23 22 22 22 22 22 22 23 22 23 23 22 22 22 22 22 21 22 21 21 21 20 20 20
20 16 14 14 15 14 14 15 16 17 18 20 21 21 22 23 23 23 22 22 22 22 23 23 23 23 23 23 23 23 23 22 22 23 23 23 23 23 22 22 22 22 21
17 14 15 15 16 15 15 16 18 19 20 21 22 23 23 23 23 23 23 23 24 24 23 24 25 25 25 24 23 24 24 24 25 24 24 23 23 24 24 23 23 23 23
16 15 16 16 16 17 17 19 20 21 22 21 21 23 24 24 24 23 24 24 25 25 25 25 26 26 26 25 25 24 24 25 26 25 24 24 23 24 25 25 24 24 24
16 15 15 16 17 18 20 21 21 22 23 23 22 23 24 25 25 24 25 25 26 26 26 26 26 27 27 27 27 27 27 26 27 27 26 25 24 24 25 25 25 24 24
16 16 18 18 18 20 21 22 23 23 23 23 24 24 25 25 25 25 25 26 27 28 27 28 28 28 27 28 28 28 28 28 27 28 29 28 27 26 26 26 25 26 26
18 18 18 18 19 21 22 23 24 24 25 25 25 25 25 26 26 26 26 26 27 28 28 28 29 29 29 29 29 29 28 28 28 29 29 30 29 28 27 27 27 27 27
18 19 20 20 21 22 23 24 25 25 26 26 26 26 27 27 27 27 27 28 28 28 28 28 28 28 28 29 29 28 28 27 29 29 29 29 30 30 29 28 28 28 28
19 20 21 21 22 23 24 25 26 27 27 27 28 28 28 28 28 28 28 28 28 29 29 29 28 28 28 28 28 27 27 27 28 28 28 29 29 29 28 28 29 30 29
20 21 21 22 23 24 24 25 26 27 27 28 28 29 29 28 28 28 29 29 29 28 29 29 28 28 28 28 28 28 28 27 27 28 28 28 28 28 28 29 29 29 30
20 21 21 22 24 25 25 26 27 28 28 28 28 28 28 27 27 28 29 30 29 29 28 28 28 27 27 27 27 27 27 27 26 27 27 28 28 28 28 28 29 29 29

GEFSSE_500_meanwind_138.txt.gz
Wind_Speed
5 5 6 6 6 5 4 3 2 2 2 3 3 4 4 5 6 7 7 8 8 7 8 8 9 9 9 9 8 7 7 6 5 5 4 4 3 3 2 2 2 1 1
7 7 7 7 7 6 6 5 4 4 4 4 4 5 5 6 6 7 8 8 8 8 8 9 9 9 9 9 9 8 7 7 6 5 4 4 3 3 2 2 1 1 1
8 9 9 9 9 8 7 6 6 6 6 6 6 6 6 7 7 7 8 9 9 9 9 9 9 9 9 9 9 8 8 7 6 5 5 4 4 4 3 2 2 1 1
11 11 11 11 10 10 9 8 8 8 8 7 7 8 8 8 8 9 9 10 10 10 10 10 10 10 10 9 9 8 8 7 6 6 6 5 5 4 4 3 2 2 1
12 13 13 13 12 11 11 10 10 10 10 9 10 9 9 10 10 11 11 11 11 11 11 10 10 10 10 10 10 9 9 8 7 7 7 6 6 5 5 4 3 2 2
14 14 15 14 13 12 12 11 11 11 11 11 11 11 12 12 12 12 12 12 12 12 12 12 11 11 11 11 10 10 9 9 8 8 8 7 7 6 5 5 4 3 3
15 15 16 15 14 13 12 12 12 12 13 13 13 13 13 13 13 13 13 13 14 14 13 13 12 12 12 12 11 11 10 10 9 9 9 8 8 8 7 6 5 5 4
16 16 16 15 15 14 14 14 14 14 14 14 14 14 14 14 15 15 14 15 15 15 15 15 14 14 14 14 13 13 12 11 10 10 10 10 10 9 8 8 7 6 6
17 17 18 17 17 16 15 15 15 15 15 15 15 15 15 15 15 15 15 16 16 16 16 17 16 16 15 15 15 14 14 13 12 12 11 12 11 11 10 10 9 8 8
18 17 18 17 18 17 16 16 17 17 17 16 16 16 16 16 16 16 17 17 17 17 17 18 18 18 17 16 16 15 15 15 14 13 13 13 13 12 12 12 11 10 10
17 17 16 16 17 18 17 17 17 18 18 17 17 17 17 17 18 18 18 17 17 17 18 18 19 18 18 18 17 17 17 16 16 15 15 15 14 14 14 14 13 13 12
17 16 14 14 16 17 17 17 17 17 18 18 18 18 18 18 19 19 18 18 18 18 18 18 19 19 19 19 19 18 18 18 17 17 17 17 16 16 16 16 16 16 15
17 16 14 14 15 17 17 17 18 18 19 19 18 18 18 19 19 19 19 20 20 20 20 20 20 20 20 19 19 19 19 20 19 19 19 19 19 18 18 17 17 17 16
16 15 14 16 17 18 18 18 17 17 18 19 20 20 19 19 21 21 21 21 22 22 22 22 21 21 20 19 20 20 20 20 20 20 20 20 21 20 20 19 18 18 18
17 15 15 16 17 18 18 18 17 17 17 19 20 20 21 21 21 22 23 24 23 23 23 23 23 22 22 21 21 21 22 21 21 22 22 21 22 22 21 21 20 19 19
17 16 16 17 17 18 19 19 17 18 18 19 20 21 22 23 23 23 22 23 24 24 24 24 24 24 24 24 23 22 22 22 22 23 23 23 23 23 22 22 22 21 20
15 16 16 17 17 17 18 18 16 17 18 19 21 21 22 22 22 23 23 24 25 24 25 25 24 24 25 25 25 23 22 22 23 23 24 24 24 23 24 24 23 23 22
15 15 15 16 16 15 17 18 18 17 18 20 20 20 21 21 22 23 23 24 25 25 25 25 25 25 26 25 24 24 23 23 23 23 24 25 25 24 24 24 24 24 24
15 14 14 15 16 17 17 17 18 18 18 18 19 19 20 21 21 22 23 24 25 25 25 25 26 26 27 26 25 25 26 25 24 24 24 25 26 26 26 26 26 25 24
16 16 16 17 18 18 19 18 19 20 19 19 19 19 20 21 22 23 24 24 25 25 26 27 27 27 28 28 28 27 27 27 27 26 26 26 26 27 28 28 27 26 26
18 18 17 18 17 18 19 20 20 21 20 21 21 21 21 22 23 25 25 25 26 26 26 27 27 27 27 28 28 29 29 29 29 28 27 27 27 28 28 28 28 28 28
18 18 18 18 19 20 20 21 21 21 21 22 22 23 24 24 24 26 26 27 27 28 27 27 27 28 29 29 29 29 29 29 29 29 27 27 28 27 28 29 29 30 29
19 19 19 19 20 20 20 20 22 23 23 24 24 24 25 26 26 27 27 28 28 28 28 28 28 29 29 29 30 30 30 29 30 29 28 28 28 28 29 30 30 31 30
19 19 20 19 19 20 21 22 23 24 25 26 26 26 27 27 27 28 29 29 29 29 29 29 29 29 29 29 29 29 29 28 29 28 28 28 28 27 28 29 31 31 31
21 21 20 20 20 21 23 24 25 25 26 26 27 27 27 27 27 27 28 28 28 29 29 29 29 29 29 29 29 29 29 29 28 27 28 28 28 28 28 28 29 30 31
22 23 23 22 22 23 24 25 26 27 27 28 28 28 28 28 27 27 28 28 28 29 29 29 29 30 29 29 29 29 30 30 29 28 28 28 28 29 28 28 28 28 30

GEFSSE_500_meanwind_144.txt.gz
Wind_Speed
1 1 1 1 1 1 2 3 4 4 4 4 3 2 2 1 1 1 1 2 3 3 3 4 4 5 5 5 5 4 4 3 3 3 2 2 2 2 2 2 2 1 1
3 2 2 1 2 3 4 4 5 5 5 5 5 4 4 3 2 2 2 2 3 3 3 3 4 4 4 4 5 5 4 4 3 2 2 2 2 2 2 2 2 1 0
4 4 3 3 4 5 5 6 6 6 6 6 6 6 5 5 4 4 3 4 4 4 4 4 4 4 4 4 5 5 5 4 4 3 3 2 2 2 2 2 2 1 1
6 5 5 5 6 6 7 7 8 7 7 7 7 7 7 6 6 5 5 5 5 5 6 5 5 5 5 5 5 5 5 5 5 4 4 4 3 3 3 3 2 2 2
7 7 7 7 7 8 9 9 10 9 9 9 9 8 8 7 7 7 7 7 7 7 7 7 7 6 6 6 5 6 6 6 6 5 5 5 5 4 4 4 4 4 3
8 8 8 9 9 9 10 11 11 11 11 10 10 10 9 9 8 8 9 9 9 8 8 8 8 8 8 7 7 7 7 7 7 7 7 7 6 6 6 6 5 5 5
9 10 10 10 9 10 11 12 12 12 12 12 12 12 11 10 10 10 10 10 10 10 9 9 9 9 9 9 9 8 8 8 8 8 8 8 7 7 7 7 7 6 6
11 11 11 10 10 11 12 13 13 14 13 13 13 13 12 12 12 12 12 12 12 11 11 11 10 11 10 10 10 10 9 9 10 10 9 9 9 9 9 9 9 8 8
13 13 12 13 13 13 13 14 15 15 15 15 15 15 14 14 14 13 13 13 13 13 12 12 11 11 12 11 11 11 11 11 11 11 11 11 11 11 11 11 10 10 10
14 14 15 15 15 15 15 15 16 16 17 17 17 16 15 14 15 14 14 14 14 14 14 13 13 13 13 13 13 13 13 13 13 13 13 12 12 12 13 13 13 12 12
14 14 15 16 15 14 15 16 17 17 17 17 17 17 17 16 16 15 15 15 15 15 15 14 15 15 14 13 13 13 14 14 14 14 15 14 14 14 15 15 14 14 14
14 14 15 16 16 16 16 18 18 18 18 17 18 19 18 17 17 17 16 16 16 16 16 16 16 15 15 15 15 14 14 14 15 16 16 16 16 16 16 16 16 16 15
14 15 15 15 15 16 16 17 18 18 18 18 18 19 20 20 19 19 19 18 18 18 18 17 17 17 16 16 16 16 16 16 16 17 17 17 18 18 17 17 17 18 17
15 15 16 16 15 15 15 16 16 17 17 18 19 19 20 21 20 20 21 20 20 20 20 19 19 18 18 18 18 17 18 19 18 18 18 18 19 19 20 20 20 19 19
16 15 16 16 16 16 16 16 16 18 19 19 19 20 21 22 22 22 23 23 23 22 22 22 21 20 20 20 20 20 20 20 20 20 20 20 20 20 21 22 21 21 21
16 16 16 16 16 16 17 18 18 19 20 20 20 21 22 23 23 24 24 25 25 24 24 23 22 23 22 22 22 21 21 22 22 22 21 22 22 21 21 22 23 23 23
17 17 17 16 16 17 18 18 18 19 21 22 21 22 22 23 24 24 24 25 26 25 25 24 24 23 23 23 23 23 23 23 23 23 24 24 23 23 23 23 24 25 25
18 18 18 17 16 17 18 19 19 20 21 22 22 22 23 23 24 25 25 25 26 26 26 26 25 24 24 25 25 25 25 25 25 26 25 25 25 25 25 25 25 26 26
17 17 18 17 16 16 17 19 19 20 21 22 23 22 23 24 24 25 25 25 25 26 26 26 26 26 26 26 26 27 27 26 27 27 27 26 27 27 26 26 27 27 28
17 17 17 17 17 18 18 18 20 21 23 23 23 23 24 25 25 26 26 26 26 27 27 27 27 27 27 27 28 28 28 28 28 29 29 29 29 28 28 28 28 28 29
16 16 16 17 18 19 19 20 21 22 23 24 24 25 26 26 26 27 27 27 26 27 27 28 28 28 28 28 29 29 30 30 30 30 30 30 30 30 30 30 30 30 30
17 17 18 18 18 19 20 21 22 22 23 24 25 25 26 26 27 28 28 28 28 28 29 29 29 29 29 29 30 30 30 31 31 30 31 31 31 31 31 31 31 31 31
19 19 19 19 19 19 20 22 23 24 24 25 26 26 26 27 28 29 29 30 30 30 31 31 32 31 31 31 31 31 30 31 31 31 31 32 32 32 32 32 32 32 32
20 20 20 21 21 21 21 23 24 24 24 25 27 27 28 28 29 30 31 31 32 32 32 32 31 31 31 31 32 31 31 31 31 31 31 32 32 32 32 32 32 33 33
22 22 21 22 23 22 22 23 24 25 26 27 28 28 29 30 30 31 32 33 33 33 33 32 31 32 32 31 31 31 32 32 32 31 31 32 32 32 32 32 32 32 32
22 22 22 23 24 24 24 24 24 25 26 27 28 29 30 31 32 32 33 33 33 33 33 33 33 33 32 32 32 32 32 32 32 32 32 32 32 32 31 31 31 31 31

GEFSSE_500_meanwind_150.txt.gz
Wind_Speed
5 5 4 4 4 5 5 5 5 6 6 7 7 7 7 6 6 5 5 5 4 4 3 2 2 2 2 2 2 2 2 2 2 2 2 2 2 2 1 1 2 2 1
8 7 7 6 6 6 6 7 7 8 8 8 9 9 8 8 7 7 6 6 6 5 5 4 4 3 3 3 3 3 3 2 2 2 2 2 2 2 2 2 2 1 1
8 8 9 8 8 8 8 9 9 9 9 10 10 10 10 9 9 8 8 8 7 7 6 6 5 5 5 4 4 4 4 3 3 3 3 3 4 3 3 3 2 2 2
9 9 10 10 10 10 11 10 10 11 11 11 11 11 11 11 10 10 9 9 8 8 7 7 6 6 6 5 5 5 5 5 4 4 5 5 5 5 4 4 3 3 3
10 10 10 12 12 12 12 12 12 12 13 13 12 12 12 12 12 11 11 10 10 9 8 8 8 7 7 7 7 7 7 6 6 5 5 6 6 6 5 5 5 4 4
11 11 12 13 13 14 14 14 14 14 14 14 14 14 13 13 13 12 12 11 11 10 10 9 9 9 8 8 8 8 8 8 7 7 6 6 6 7 7 6 6 6 6
13 13 13 14 14 15 15 15 16 15 15 15 15 15 15 14 14 13 13 13 12 12 11 11 11 10 10 10 10 10 9 9 9 8 7 8 8 8 8 8 8 8 7
14 14 16 16 15 15 16 17 17 16 17 17 17 16 16 16 15 15 14 14 14 13 13 13 12 11 11 11 11 11 11 11 11 9 9 9 9 9 9 9 9 9 9
15 15 16 17 17 17 17 18 18 18 18 18 19 18 18 17 17 16 16 16 15 15 15 14 14 13 13 13 12 13 12 12 12 12 11 10 10 10 10 10 11 11 11
16 16 16 17 18 19 19 19 20 20 19 20 20 19 19 18 18 17 17 17 17 16 16 15 15 15 14 14 15 14 14 14 14 13 13 12 12 12 12 12 12 12 13
17 18 18 17 18 19 19 19 19 20 20 20 20 20 21 20 19 18 18 18 18 18 17 17 17 16 16 16 16 15 15 15 15 15 14 14 14 14 14 14 14 14 14
18 19 18 18 18 18 18 19 20 20 21 21 21 21 21 22 21 19 18 18 18 18 18 18 18 18 17 17 17 16 16 16 15 14 14 16 15 15 16 16 16 16 15
19 20 19 19 19 18 18 19 20 20 21 21 21 21 21 21 21 21 19 19 19 19 18 18 19 19 19 19 19 18 17 16 16 15 16 17 16 17 17 18 18 17 17
20 20 20 21 21 20 19 19 21 22 22 22 21 20 21 21 20 21 20 20 20 19 19 19 19 19 20 20 19 19 19 19 18 18 17 17 18 18 19 19 19 19 19
20 21 21 21 21 21 21 21 21 22 23 22 20 20 21 21 20 20 21 22 21 21 21 21 21 21 21 22 21 20 21 21 20 20 19 19 20 20 20 20 20 20 20
20 21 21 21 21 21 21 22 22 21 22 23 22 21 21 21 20 20 21 22 21 21 22 22 23 22 22 23 22 22 22 21 21 21 21 21 22 21 21 21 22 21 21
20 21 21 22 22 22 22 23 23 22 22 22 22 23 23 23 22 22 22 22 22 23 24 24 24 24 23 23 23 23 23 23 23 23 23 23 23 23 23 22 22 22 22
20 21 22 22 22 23 23 23 23 23 23 24 24 25 24 24 24 24 24 24 24 24 24 25 25 25 25 25 24 24 24 23 23 23 24 24 24 24 24 24 23 23 23
20 21 22 23 23 23 23 23 24 24 24 24 24 25 25 25 25 25 25 25 25 26 26 26 26 26 26 25 25 25 25 25 25 25 25 25 25 26 25 25 25 25 24
20 21 22 23 23 22 23 23 23 23 23 24 24 25 26 26 26 26 26 27 27 27 27 28 28 27 27 27 26 26 26 26 26 25 26 27 27 27 27 26 26 26 26
21 21 22 22 22 23 22 22 23 23 24 24 24 25 26 27 27 27 28 28 29 29 27 28 28 27 27 27 27 27 27 28 28 27 27 27 28 28 28 28 28 27 27
21 22 22 23 24 24 24 24 24 25 25 25 26 26 27 27 27 28 29 30 29 30 29 28 28 28 28 28 28 28 28 28 28 28 28 28 27 28 28 28 28 28 28
23 23 24 24 25 25 25 25 26 27 27 27 27 27 27 26 27 28 30 31 31 31 30 31 30 30 30 30 30 30 29 28 27 27 28 28 28 29 28 28 28 28 28
22 23 24 25 25 26 25 26 27 28 28 28 28 29 29 29 29 30 31 31 32 32 32 32 32 31 31 31 31 31 31 30 28 27 28 28 28 28 29 28 28 28 29
23 24 24 24 25 25 25 26 27 28 30 30 30 30 29 30 31 31 31 32 32 31 32 32 32 32 31 31 31 30 30 30 30 29 28 28 28 28 29 29 29 29 29
23 24 24 25 24 25 26 26 28 29 30 30 30 29 30 30 31 31 31 32 32 31 32 33 33 32 31 31 31 31 30 30 30 30 29 29 29 29 29 29 28 28 28

GEFSSE_500_meanwind_156.txt.gz
Wind_Speed
3 3 4 4 4 5 5 6 6 7 7 8 8 9 10 10 10 10 9 9 8 8 8 7 7 7 7 6 6 5 5 5 5 4 4 4 4 3 3 2 1 1 1
4 4 5 5 6 6 7 7 8 9 9 10 10 10 11 12 12 11 11 10 10 9 9 9 9 8 8 7 7 7 6 6 5 5 5 4 4 4 3 3 2 1 1
5 5 6 6 7 8 8 9 10 10 11 11 12 12 12 13 13 13 12 12 12 11 11 10 10 10 9 8 7 7 7 6 6 6 6 5 5 5 4 3 3 2 2
7 7 8 8 8 9 10 10 11 12 12 13 13 13 14 14 14 14 14 13 13 13 12 12 12 11 10 9 9 8 8 7 7 7 7 6 6 5 5 5 4 3 3
9 9 10 9 9 10 11 12 13 13 13 14 14 15 15 15 15 15 15 15 14 14 14 13 13 12 11 11 10 9 9 8 8 8 7 8 7 6 6 6 6 5 4
9 9 10 10 10 11 12 13 14 14 15 15 15 16 16 16 16 17 17 16 16 15 15 15 14 13 13 12 11 10 10 10 9 9 9 9 8 8 8 8 7 7 6
10 10 11 11 12 13 14 14 15 15 16 16 17 17 17 18 17 17 18 18 17 17 16 16 15 15 14 13 12 12 11 11 11 11 10 10 10 10 9 9 8 8 8
10 11 13 13 14 14 15 16 16 17 17 18 18 18 19 19 18 19 19 19 19 18 18 17 16 16 15 14 14 13 13 12 12 12 12 11 11 11 11 10 9 9 8
11 12 13 14 15 16 16 17 17 18 18 19 20 19 19 19 19 20 20 20 20 20 19 18 18 17 16 16 15 15 14 14 14 13 13 13 13 12 11 11 11 10 10
12 13 13 14 15 17 17 18 19 19 20 21 21 20 20 20 21 21 21 21 21 21 21 20 19 18 18 17 17 16 16 15 14 14 15 15 14 13 13 12 12 12 11
13 14 15 15 16 17 17 18 18 19 20 21 21 20 20 21 21 22 22 22 21 21 21 20 20 20 19 18 18 17 17 16 15 15 15 15 16 15 14 14 13 13 13
14 15 16 17 17 17 17 18 18 19 20 20 20 21 21 21 22 23 23 22 22 22 22 21 20 20 19 19 19 18 18 17 17 17 16 17 17 16 16 16 16 15 15
16 16 17 17 17 17 18 18 17 18 19 20 21 21 21 22 22 23 23 24 23 23 23 22 22 21 20 20 19 19 19 19 18 17 17 17 17 16 17 16 17 16 16
17 17 18 17 18 17 17 18 18 19 20 20 21 22 22 23 23 23 23 24 24 24 24 24 23 22 21 21 20 20 20 20 19 18 18 18 18 18 18 17 17 17 17
18 17 18 18 18 17 18 19 19 20 21 20 21 21 21 22 23 22 23 23 23 23 24 24 24 23 22 22 22 21 21 21 20 19 19 19 19 20 19 19 19 18 17
19 18 18 18 19 18 19 19 19 20 20 20 20 21 22 22 22 22 23 23 23 22 22 23 23 23 23 23 23 23 23 22 21 21 21 20 20 21 20 20 20 19 18
20 19 19 19 19 19 19 20 20 20 21 20 19 20 21 21 22 23 23 23 23 22 21 21 22 22 23 23 24 24 23 23 22 22 22 21 21 21 21 21 21 22 21
20 20 20 18 18 19 20 20 20 21 21 21 21 21 21 21 22 23 23 24 24 23 23 23 23 23 24 24 24 24 24 24 23 23 23 22 22 22 22 22 22 23 23
19 19 19 19 19 20 20 21 21 22 22 23 22 22 22 22 22 23 23 24 24 24 24 24 24 24 24 24 24 24 25 26 25 24 24 24 23 23 23 23 23 23 24
18 19 19 20 19 20 21 22 22 24 24 24 24 24 24 23 23 23 24 24 25 25 24 24 25 25 25 25 26 26 26 26 26 25 25 25 24 24 23 23 23 23 23
19 19 20 20 21 21 22 22 23 23 24 24 23 23 23 24 24 25 25 24 25 26 26 26 26 26 26 27 27 27 27 27 27 25 25 25 25 25 25 24 24 24 24
19 20 21 20 21 22 22 23 24 24 24 23 24 24 24 24 25 26 26 25 26 27 28 28 28 28 28 28 28 27 27 27 27 26 26 26 25 25 25 25 25 25 25
21 21 21 21 21 22 23 23 24 24 24 24 24 24 24 25 26 27 27 27 27 28 29 29 29 29 29 29 29 28 27 27 27 27 27 27 26 26 26 26 25 25 25
21 21 21 21 22 23 24 24 25 24 25 25 24 24 25 26 27 28 28 28 28 28 28 28 28 29 29 29 29 29 29 29 28 27 27 27 27 26 26 26 26 26 26
21 21 20 21 23 24 25 25 25 26 26 26 25 26 26 27 27 27 27 27 27 27 27 27 28 29 29 29 30 30 30 29 29 28 27 27 27 26 26 26 26 25 25
21 21 23 23 23 24 25 26 26 27 27 26 27 27 27 27 26 26 26 26 27 27 27 27 28 28 28 29 29 30 30 29 29 29 28 27 27 27 27 26 26 26 25

GEFSSE_500_meanwind_162.txt.gz
Wind_Speed
5 5 6 7 7 7 7 7 7 6 6 7 7 8 9 9 10 11 11 11 12 12 12 12 12 11 11 10 10 9 8 8 8 7 7 6 6 5 5 5 4 3 3
5 6 7 7 8 8 8 8 8 8 8 8 8 9 10 11 11 12 12 12 13 13 13 13 13 13 12 11 10 10 9 9 8 8 7 7 6 6 5 5 5 4 4
6 7 8 9 9 9 9 9 9 9 9 10 10 11 12 12 13 13 13 14 14 14 14 14 14 13 13 12 11 11 10 9 9 9 8 8 8 7 6 6 6 5 5
8 9 9 10 10 10 10 10 10 11 11 12 12 13 13 14 15 15 15 15 15 15 15 15 15 14 14 14 13 12 11 10 10 9 9 9 9 8 8 7 7 6 6
9 10 10 10 11 11 11 11 11 12 13 13 14 14 15 15 16 16 16 17 17 17 17 16 16 15 15 14 14 13 12 11 11 10 10 10 10 9 9 8 8 7 7
10 10 11 11 11 11 11 12 13 13 14 14 15 15 16 16 16 17 17 18 18 18 18 18 17 16 16 15 15 14 13 13 12 11 11 11 11 11 10 10 9 9 8
11 12 12 11 11 11 12 12 13 14 14 15 16 17 17 18 18 18 18 18 19 19 19 19 19 18 17 16 16 15 14 14 13 12 12 12 11 11 11 11 11 10 9
12 13 12 12 12 12 13 13 14 15 15 16 17 18 19 19 20 20 20 19 20 20 20 20 20 19 18 18 17 16 15 15 14 13 13 13 12 12 11 11 11 11 10
13 13 13 13 13 14 14 15 15 17 17 18 19 19 19 20 20 21 21 21 21 21 21 21 21 21 20 19 18 18 17 16 16 15 14 14 14 13 12 12 12 11 11
14 14 14 14 15 15 15 16 17 17 18 19 19 20 20 20 21 21 23 22 22 22 22 22 22 22 22 21 20 19 18 17 17 17 16 16 15 14 14 14 13 12 12
15 15 15 15 16 17 17 17 18 18 18 19 19 20 21 21 22 22 23 23 23 23 22 22 22 23 22 22 22 21 20 18 18 18 17 17 16 16 15 15 14 14 13
15 16 17 17 18 18 17 18 18 18 18 18 18 19 21 22 22 23 23 24 23 23 23 22 23 23 23 23 22 22 21 19 19 19 19 18 17 17 17 16 16 15 15
16 17 18 19 19 18 19 19 19 18 18 19 19 19 20 21 22 22 23 24 23 24 24 24 24 24 24 24 23 22 22 21 20 20 19 19 18 18 17 17 17 17 16
17 17 18 19 20 19 20 20 20 19 19 19 19 20 21 21 22 23 23 24 23 24 24 24 24 25 25 24 24 24 23 22 21 21 21 20 20 19 18 18 18 19 18
17 18 19 20 20 20 20 20 20 20 20 20 20 21 21 21 21 23 23 23 24 24 25 25 25 25 25 25 25 25 25 24 23 22 22 22 21 21 20 19 19 19 19
18 19 19 19 20 21 21 21 21 21 21 21 21 21 21 21 21 22 23 24 24 23 24 24 25 26 26 26 26 26 26 25 25 24 23 23 22 22 21 20 20 20 20
19 19 20 20 21 22 22 22 21 22 21 21 21 21 22 22 21 22 22 23 23 23 23 24 24 25 25 25 25 25 25 25 25 25 24 24 23 22 22 21 21 21 22
20 20 21 22 22 22 22 22 21 22 22 22 22 22 22 22 22 23 23 23 23 23 23 24 24 24 25 25 25 25 25 26 26 26 26 25 25 24 24 24 23 23 23
20 21 21 22 21 22 22 23 22 22 23 23 24 24 23 23 23 23 23 24 24 25 24 24 25 26 26 26 26 26 27 27 27 27 26 26 26 25 25 25 24 24 24
20 20 21 21 21 21 23 24 23 23 23 24 24 24 24 23 24 24 25 25 25 26 25 26 26 26 26 26 27 27 27 27 28 28 27 26 26 26 26 26 25 25 25
20 22 21 21 21 22 23 23 22 23 25 25 24 24 24 25 25 25 26 26 26 27 27 27 27 26 26 26 27 28 28 28 29 29 29 29 28 28 27 26 25 25 25
21 22 23 22 22 22 23 23 23 24 25 24 25 26 26 27 27 27 27 27 27 27 28 28 27 27 27 27 27 28 29 30 30 30 30 30 30 29 28 28 27 26 26
22 22 23 23 23 24 24 25 25 25 25 25 26 26 27 28 28 27 27 27 27 27 27 28 28 28 27 27 28 28 28 29 31 31 31 31 31 30 29 28 27 27 26
22 23 23 23 24 25 25 26 26 27 26 27 28 28 28 28 28 27 27 27 28 27 27 28 28 28 28 29 29 29 29 29 31 31 31 31 31 30 30 29 28 27 27
23 23 23 23 24 25 27 27 27 27 27 28 28 29 28 28 28 28 28 28 28 28 28 28 28 28 28 29 29 30 30 30 31 31 31 31 31 31 31 30 29 29 29
22 23 24 24 25 25 26 26 26 26 26 27 27 28 28 28 28 28 29 28 28 28 28 28 28 28 28 29 29 29 30 30 30 31 30 30 30 31 31 31 30 30 29

GEFSSE_500_meanwind_168.txt.gz
Wind_Speed
0 1 1 2 3 3 4 5 5 5 5 6 6 6 6 7 7 7 7 7 7 7 8 8 8 9 9 8 8 8 7 7 7 7 6 6 6 6 5 5 5 4 4
2 2 3 4 4 4 5 6 6 7 7 7 7 7 8 8 8 8 8 8 8 8 9 9 9 9 9 9 8 8 8 7 7 7 7 7 7 6 6 6 5 5 5
3 4 5 5 5 6 7 7 7 8 8 8 9 9 9 9 9 9 10 10 9 9 9 9 9 10 10 10 9 9 9 8 8 8 8 8 7 7 7 7 6 6 6
5 5 6 6 7 7 8 8 9 9 9 10 10 10 10 11 11 11 11 11 11 10 10 11 11 10 10 10 10 10 9 9 9 9 9 9 8 8 8 8 8 7 7
6 7 7 8 8 9 9 10 10 10 11 11 11 11 12 12 13 12 12 12 12 12 11 12 12 11 11 11 10 10 10 10 10 10 10 10 10 10 10 10 10 9 9
8 8 9 9 10 10 11 11 11 12 12 12 13 13 14 14 14 14 13 13 13 13 13 12 13 13 13 12 11 11 11 11 11 11 12 12 12 11 11 11 11 11 11
9 9 10 10 11 11 12 13 13 13 13 13 14 15 15 15 15 15 14 14 14 14 14 14 14 14 14 13 13 12 12 12 12 12 13 13 13 13 13 13 13 13 12
10 10 11 11 11 12 13 13 14 14 14 15 16 16 16 16 16 16 16 16 16 16 16 16 15 15 15 15 14 13 13 14 14 14 14 15 15 15 15 15 14 14 14
11 12 12 12 13 14 14 14 15 16 17 18 18 17 17 17 17 17 17 17 17 17 17 17 17 17 16 16 15 15 15 15 16 16 16 16 16 17 17 16 15 15 14
13 13 13 13 14 15 16 17 17 18 18 19 18 18 18 19 19 19 19 19 19 19 19 19 18 18 18 17 17 16 17 17 18 18 18 17 17 17 18 18 17 17 16
14 14 15 16 17 17 18 18 19 19 19 19 19 19 20 20 20 20 20 20 20 20 20 20 20 19 19 19 19 18 18 18 19 19 19 18 18 18 18 18 18 18 17
15 16 17 18 19 19 19 19 20 20 20 21 20 20 21 21 21 21 21 21 21 21 21 21 21 20 21 21 21 20 20 20 20 20 20 19 19 18 18 19 20 20 19
16 17 18 19 20 20 20 20 21 21 21 21 21 22 22 22 22 22 22 22 22 22 22 22 22 22 22 23 23 23 22 22 21 21 21 20 20 19 19 20 20 20 20
17 18 19 19 20 21 20 20 21 21 21 21 21 22 23 23 24 23 23 23 23 23 23 23 24 24 24 24 24 24 24 24 23 23 22 22 22 21 21 20 21 21 20
19 20 20 20 21 21 21 21 21 21 21 22 22 22 22 23 24 24 24 24 23 23 23 24 24 25 25 25 25 25 25 25 25 24 24 24 24 23 22 22 22 22 21
19 19 20 20 21 21 21 21 21 21 21 23 23 23 23 23 24 25 25 25 24 24 24 25 25 25 26 26 26 26 25 26 25 25 25 25 25 25 25 24 23 23 22
19 20 21 20 21 21 21 22 22 22 22 22 23 23 24 24 24 24 25 25 25 24 24 25 25 25 26 27 27 26 26 26 26 26 26 26 27 27 26 26 25 25 23
19 19 19 20 20 20 21 22 22 22 22 23 23 24 24 24 25 25 25 26 26 26 26 26 25 26 26 27 27 27 27 27 27 26 25 26 28 28 27 27 27 26 25
19 19 20 20 20 21 22 23 24 24 23 24 24 25 25 26 26 26 27 27 27 27 27 26 26 26 27 27 27 28 27 27 27 27 26 26 27 28 28 28 28 28 27
21 21 21 21 21 22 23 24 24 24 24 24 25 26 27 27 27 27 28 29 29 29 28 27 28 28 28 28 28 28 28 28 27 28 28 28 28 28 29 29 29 29 29
21 22 21 21 22 22 23 23 24 24 25 26 26 27 28 29 29 29 29 30 30 30 29 28 29 29 29 28 28 28 28 28 28 29 30 30 30 29 30 30 30 30 29
22 22 22 22 23 24 24 24 25 25 26 27 28 28 29 30 31 31 31 31 30 30 30 30 29 30 30 30 29 29 29 29 28 29 30 31 31 30 30 30 31 31 30
22 22 22 22 23 24 25 25 25 26 27 29 29 28 29 29 30 31 31 31 31 30 30 30 30 30 30 30 29 29 29 29 29 29 30 31 32 31 31 31 31 31 31
23 23 23 23 24 25 26 26 26 27 28 28 28 27 28 29 30 30 31 31 31 31 30 30 30 30 29 30 29 29 29 29 29 29 30 30 31 32 33 32 31 31 31
23 22 22 23 24 25 25 26 27 27 28 28 29 29 29 30 29 30 30 30 30 30 30 30 30 29 29 28 29 29 29 29 29 30 30 30 30 31 32 32 31 30 30
23 22 23 24 24 24 25 26 27 28 28 29 29 28 28 29 29 29 29 29 29 29 29 29 29 28 29 28 29 29 29 28 29 29 29 30 30 30 30 31 30 30 30

GEFSSE_500_meanwind_174.txt.gz
Wind_Speed
3 3 4 5 5 6 6 6 7 8 8 9 9 9 9 9 9 8 8 8 8 8 8 8 7 7 7 8 7 7 8 7 7 7 7 7 7 7 7 7 7 7 6
5 5 6 7 7 7 8 8 9 9 10 10 10 10 10 10 10 10 9 9 10 10 9 9 9 9 9 9 9 9 9 9 8 8 9 9 8 8 8 8 7 7 7
7 7 7 8 9 9 9 10 10 11 11 12 12 12 12 12 11 11 11 11 11 11 10 10 10 10 9 9 10 10 10 10 10 10 10 10 9 9 9 9 8 8 8
7 8 8 9 10 10 11 11 12 12 13 13 13 13 13 12 12 12 12 12 12 11 11 11 11 11 10 10 10 11 11 11 11 11 11 11 11 11 10 10 9 9 9
9 9 9 10 11 11 12 12 13 13 13 13 14 14 14 14 14 14 13 13 13 12 12 12 12 12 11 11 11 12 12 12 12 12 12 12 12 12 12 12 11 11 11
10 10 11 11 12 12 12 12 13 14 14 14 15 15 15 14 14 14 14 14 14 13 13 13 13 13 13 13 13 13 13 13 13 14 13 13 13 13 13 13 13 13 13
11 12 12 12 12 13 12 13 14 14 14 15 15 15 15 16 16 15 15 15 15 15 14 15 15 15 15 14 14 14 14 14 13 14 14 13 13 14 14 14 15 15 15
13 13 13 12 13 14 14 14 14 15 16 16 17 17 17 17 17 17 16 16 16 16 16 16 16 16 16 16 16 16 16 16 15 15 14 14 15 16 16 16 16 17 16
14 14 14 14 15 15 15 15 16 17 18 19 19 20 19 18 18 17 17 17 17 17 17 18 18 18 18 17 17 17 18 17 17 17 16 16 17 17 17 17 17 18 17
14 15 16 16 16 16 17 17 18 19 20 21 21 21 20 19 19 18 18 18 18 19 18 19 19 19 19 19 19 19 19 19 20 19 18 18 19 19 19 19 18 18 18
15 16 16 16 17 18 19 20 20 20 21 22 22 22 21 21 20 20 20 19 19 19 19 20 20 20 20 20 20 20 21 21 21 21 20 20 21 20 20 21 20 20 20
17 17 18 18 19 19 20 20 21 21 22 23 23 23 23 22 22 21 21 20 20 20 21 21 21 21 21 21 21 21 22 22 22 22 21 22 22 22 22 22 22 22 21
18 19 19 19 20 21 21 22 23 22 22 23 23 23 23 23 22 22 21 21 21 22 21 21 22 22 22 22 22 22 23 24 23 23 23 24 23 23 23 23 22 22 22
18 19 20 21 21 22 23 23 23 23 23 23 23 23 23 23 23 23 22 22 23 23 22 22 22 22 22 23 23 23 24 25 25 25 23 23 24 24 24 23 24 23 23
18 19 20 21 22 23 24 24 24 24 24 24 23 24 24 24 24 24 24 24 24 24 24 24 24 24 23 24 24 23 23 24 25 25 25 25 25 26 26 25 24 24 24
19 20 21 21 23 24 25 24 25 25 25 25 25 24 24 25 24 24 25 25 25 24 24 24 25 25 25 25 25 25 25 25 25 24 26 26 26 26 27 26 26 26 25
20 21 22 23 24 25 26 26 25 25 26 26 26 26 25 25 26 26 27 27 27 27 27 27 27 27 27 27 26 25 25 26 26 26 27 27 28 27 27 27 26 27 27
22 23 23 24 25 26 26 25 26 25 25 27 27 27 26 27 27 27 28 28 29 30 29 29 28 28 29 29 28 27 27 27 27 27 28 28 29 28 28 28 27 27 27
24 24 24 24 25 25 25 26 26 26 27 27 26 26 27 27 28 29 29 30 31 31 31 31 30 30 29 29 29 28 28 27 28 28 28 28 29 29 29 29 29 29 28
24 24 25 25 25 26 26 26 27 27 27 27 27 27 27 29 29 30 30 31 31 32 32 32 32 31 30 30 30 29 28 28 28 29 29 29 29 28 28 29 29 30 28
25 25 25 25 26 27 28 28 28 26 27 27 28 28 29 29 30 31 32 32 32 32 33 33 33 32 31 30 30 29 29 28 28 28 28 28 29 29 28 28 29 29 28
26 26 27 27 27 28 28 28 27 26 27 27 28 29 29 30 31 32 32 32 33 32 32 32 32 32 31 31 30 29 29 29 29 28 28 28 28 29 29 29 29 28 29
26 26 27 27 27 28 28 27 27 27 28 28 29 29 30 31 32 32 33 33 33 32 31 31 32 32 30 30 30 29 29 29 28 28 28 29 29 28 29 29 29 29 28
26 26 27 27 27 28 27 27 28 28 29 29 30 30 31 32 31 31 32 32 32 32 31 31 31 30 29 29 30 30 29 29 29 29 29 29 29 28 28 28 28 28 28
25 25 26 27 27 27 26 27 29 29 29 29 30 30 30 30 30 31 31 31 31 30 30 30 29 28 27 28 28 28 29 29 29 29 28 29 29 29 29 29 29 28 29
26 26 26 26 26 26 26 27 28 29 29 29 29 30 29 29 29 30 30 30 29 28 27 26 26 26 26 26 26 27 27 28 28 28 28 28 28 29 28 29 28 28 28

GEFSSE_500_meanwind_180.txt.gz
Wind_Speed
2 2 3 3 4 4 5 6 7 8 8 9 10 11 12 12 13 13 13 12 12 12 11 11 11 11 11 11 11 11 11 11 10 10 10 9 9 9 9 8 8 8 7
3 3 4 5 5 6 7 7 8 9 10 10 11 12 12 13 14 14 14 13 13 13 13 12 12 12 12 12 12 12 12 12 11 11 10 10 10 10 10 9 9 9 8
5 5 5 6 7 7 8 8 9 10 10 11 11 12 13 14 14 15 15 14 14 14 14 13 13 13 13 13 13 12 12 12 12 11 11 11 11 10 10 10 10 10 9
6 6 7 8 8 8 8 9 10 10 11 11 12 13 14 14 15 15 15 15 15 15 14 14 14 14 14 14 13 13 13 12 12 12 12 12 12 11 12 12 11 11 10
8 8 8 9 9 9 9 10 11 11 12 12 13 13 14 15 16 16 16 15 15 15 15 15 15 15 15 15 14 14 14 13 13 14 13 13 13 13 13 13 13 13 12
9 9 9 9 10 10 11 11 11 12 13 13 14 15 15 16 16 16 17 17 16 16 16 16 16 16 16 16 15 15 15 15 15 14 14 14 14 14 14 14 14 14 14
9 10 10 10 11 11 11 12 13 13 14 15 16 16 17 17 17 17 18 17 17 17 17 17 17 17 17 17 16 16 16 16 16 16 16 16 16 16 15 14 14 15 15
10 11 11 11 12 12 13 14 14 15 15 16 16 17 18 18 18 18 18 18 18 18 18 18 18 18 18 18 18 17 17 18 18 18 17 17 17 16 16 16 16 15 15
11 11 12 12 12 13 14 14 15 15 16 16 17 18 18 19 19 19 19 19 19 19 19 19 19 19 19 19 19 19 19 19 19 19 19 19 18 17 17 18 18 18 17
12 13 13 13 13 14 15 15 16 17 17 18 18 19 20 20 21 20 20 20 19 19 20 20 20 20 20 20 20 21 21 21 20 20 20 20 20 19 19 19 19 19 18
13 13 14 14 15 15 16 17 17 18 18 19 20 20 21 21 21 21 21 20 20 20 20 20 20 20 20 21 21 21 22 22 22 22 22 22 21 21 21 20 20 20 20
13 14 15 16 16 16 17 18 19 19 20 20 21 22 22 22 22 22 21 21 20 20 20 19 20 20 20 20 21 22 22 23 23 23 23 23 23 23 22 21 21 21 21
14 15 16 16 16 17 17 18 19 20 21 21 22 23 23 22 22 22 22 21 21 20 21 21 21 21 21 21 21 22 23 24 24 24 24 24 24 24 23 23 22 22 22
16 17 17 16 17 18 18 19 20 20 21 22 23 23 23 22 22 22 22 22 22 22 22 22 22 22 22 22 23 24 24 24 25 25 25 25 26 25 24 24 24 23 23
16 17 17 16 17 18 19 20 21 21 22 23 23 23 23 23 23 24 23 23 23 23 22 22 23 23 23 24 24 25 25 25 25 26 27 27 27 27 26 25 25 25 24
17 18 18 18 18 19 19 20 21 22 22 22 23 23 24 24 24 24 24 24 24 23 23 24 25 25 25 25 25 26 26 27 27 27 28 28 27 27 27 27 27 26 25
18 19 20 19 19 20 21 21 21 22 23 23 23 23 24 24 24 25 25 25 25 24 24 25 26 26 26 27 27 27 27 28 28 28 29 29 28 27 27 27 27 27 26
20 20 21 21 21 21 22 22 22 23 24 24 24 25 25 25 26 25 26 26 26 26 26 26 27 27 28 28 28 28 28 29 29 29 29 29 29 28 28 27 27 27 27
20 20 21 22 23 23 24 24 24 24 24 25 26 25 26 27 27 27 26 27 27 26 27 27 28 29 28 28 28 28 29 29 29 29 29 29 29 29 29 28 28 28 28
21 21 21 22 23 24 25 25 25 25 26 27 27 27 28 28 27 27 28 27 27 27 27 27 28 28 28 29 29 28 28 28 29 29 29 29 29 30 29 29 29 29 29
21 23 23 23 24 25 25 25 25 26 27 27 27 27 28 28 28 28 29 28 28 28 28 29 29 29 29 29 28 28 28 27 28 28 29 29 29 29 29 29 30 29 29
23 25 25 24 25 25 25 25 26 26 25 26 26 27 28 28 29 29 28 28 28 29 29 30 29 29 29 29 29 29 28 27 27 28 29 29 28 28 28 28 29 29 30
24 24 24 25 25 25 25 26 26 26 25 25 26 26 26 26 27 28 27 28 29 30 29 29 28 28 28 28 28 28 28 27 27 27 28 29 29 29 29 29 29 28 28
23 23 23 25 25 25 25 25 25 25 26 26 26 26 25 26 27 27 27 28 29 28 28 28 28 27 26 26 26 27 27 26 25 25 26 27 27 28 28 29 28 27 27
24 24 25 25 25 25 25 25 26 26 27 27 26 25 26 26 26 27 27 27 27 26 27 27 27 26 25 25 25 25 24 24 24 24 24 25 25 26 26 27 27 28 27
25 26 26 26 25 25 25 25 26 26 27 26 26 26 26 26 26 26 25 25 25 25 25 25 24 24 23 22 23 23 23 22 22 22 22 23 24 24 25 25 26 27 27

GEFSSE_500_meanwind_186.txt.gz
Wind_Speed
3 3 4 5 5 5 6 6 6 7 8 8 9 9 10 11 11 12 13 13 13 14 14 15 15 14 14 14 13 13 12 12 12 11 11 11 11 11 10 10 10 10 9
4 4 5 6 6 6 6 7 7 8 9 9 10 11 11 12 12 13 14 14 14 15 15 16 15 15 15 15 14 14 13 13 12 12 12 12 12 12 12 11 11 11 10
5 5 6 7 8 8 8 8 8 9 10 10 11 12 13 13 14 14 15 15 15 16 16 16 16 16 16 16 15 15 14 14 13 13 13 13 13 13 12 12 12 12 11
6 6 7 8 8 9 9 9 10 10 11 12 12 13 14 14 15 15 16 16 17 17 17 17 17 17 17 16 16 15 15 15 14 15 15 15 14 13 13 13 12 12 13
6 8 9 9 9 10 10 11 11 11 12 13 13 14 15 15 16 17 17 18 18 17 17 17 17 17 17 17 17 16 16 15 15 15 16 16 15 15 14 14 14 13 14
8 9 10 10 10 11 11 12 12 12 13 14 14 15 16 17 18 18 18 19 19 18 18 19 19 19 18 18 18 17 17 16 16 16 16 16 16 16 15 15 15 14 15
9 10 11 11 11 12 12 12 13 13 14 15 16 16 17 18 18 19 19 19 19 20 20 20 20 20 19 19 19 18 18 18 17 17 17 17 17 17 17 17 16 15 16
11 11 12 11 11 12 12 13 14 15 15 16 17 17 18 19 19 19 19 20 20 21 21 21 21 21 20 21 20 19 19 19 19 19 19 18 18 18 18 18 18 17 16
12 12 13 12 12 13 14 15 15 16 16 17 18 18 19 19 19 20 20 21 22 22 22 21 21 21 22 22 22 21 21 21 21 21 20 20 20 20 20 20 19 18 18
14 14 14 14 14 14 15 16 16 17 17 18 19 19 20 20 20 21 22 22 22 22 22 22 22 22 22 23 23 22 22 22 23 22 22 22 22 22 21 21 21 20 20
15 15 15 15 15 15 16 17 17 18 18 19 19 20 21 21 21 22 23 23 23 23 23 24 23 23 23 23 23 23 23 23 23 23 23 23 23 23 23 22 22 22 22
16 17 17 16 16 16 17 17 18 18 19 20 20 21 22 22 22 23 24 24 24 24 24 24 24 24 25 25 24 24 24 24 23 23 24 24 25 25 24 24 23 23 22
17 17 18 17 17 17 17 18 18 19 20 21 21 22 22 22 22 23 24 24 25 25 25 25 24 25 25 25 26 26 26 25 25 25 25 25 25 26 26 26 25 24 23
17 18 17 18 17 17 18 19 19 20 21 21 22 22 22 23 24 24 25 26 26 26 26 26 25 26 26 27 28 27 27 27 27 26 26 27 27 26 26 27 26 25 25
18 18 20 19 18 18 19 20 20 21 22 22 23 23 23 24 25 25 26 25 26 26 26 27 27 28 28 28 28 29 28 29 29 29 28 28 28 28 28 28 28 27 27
19 18 19 18 19 19 19 20 20 21 22 23 24 24 25 25 26 26 26 27 27 26 27 28 28 29 29 29 29 29 29 30 30 29 29 29 29 29 29 29 29 29 29
19 19 20 19 19 19 20 20 20 22 23 24 24 25 25 26 27 27 27 28 28 28 28 28 29 29 30 31 31 31 30 30 30 29 30 30 30 30 29 29 30 30 30
19 19 20 21 21 20 21 22 22 23 24 25 25 26 26 27 28 28 28 28 29 29 29 29 29 30 31 31 31 32 31 31 31 30 30 30 31 31 30 30 30 29 30
19 20 20 21 22 22 23 23 23 25 25 25 27 27 27 27 28 29 29 29 29 29 30 30 30 31 31 31 31 32 32 32 32 31 31 31 31 31 31 31 31 30 31
20 20 21 22 22 22 23 25 25 25 25 26 27 27 27 28 29 29 29 29 29 30 31 31 31 31 31 31 31 31 31 32 32 31 32 31 31 31 31 31 31 31 31
21 21 22 23 23 23 25 25 26 27 27 28 27 28 28 29 29 29 30 29 30 31 31 31 31 31 31 31 30 30 31 30 31 31 32 32 31 31 31 31 31 32 32
22 22 23 23 24 24 25 26 26 28 28 28 27 28 29 29 29 30 29 29 30 30 31 30 30 30 30 30 30 30 30 29 29 30 31 32 31 31 31 30 30 31 32
22 23 23 24 25 25 26 27 27 27 27 28 28 28 29 30 30 29 29 29 29 30 29 29 29 29 29 29 29 29 28 28 28 29 29 30 30 30 30 29 29 31 32
22 23 24 24 25 24 25 26 27 27 27 28 28 28 29 29 28 28 29 29 29 29 29 28 28 28 28 28 28 27 27 26 26 26 27 28 29 29 29 29 29 29 30
23 24 25 25 25 25 25 26 28 28 28 27 27 28 28 27 27 28 28 28 28 28 28 28 27 26 26 26 25 25 24 24 24 24 24 26 26 27 27 28 27 29 29
23 24 24 25 25 26 26 26 27 28 27 27 27 27 27 27 27 26 27 27 27 27 28 27 26 25 25 25 24 24 23 23 23 23 22 22 24 25 25 26 27 27 28

GEFSSE_500_meanwind_192.txt.gz
Wind_Speed
2 2 1 1 1 3 4 5 6 6 6 6 6 6 6 6 7 7 7 8 8 8 9 9 9 10 10 10 10 10 10 10 10 10 10 10 10 10 10 10 10 11 11
2 1 1 2 2 3 5 6 7 7 7 7 7 7 7 8 8 8 8 9 9 10 10 10 11 11 11 11 11 11 11 11 11 11 11 11 11 11 11 11 11 12 12
3 2 2 3 3 4 5 6 7 8 8 9 9 9 9 9 9 10 10 10 11 11 11 12 12 13 13 13 13 12 12 12 11 11 11 12 12 12 12 12 12 12 13
5 4 4 5 5 6 7 8 9 9 9 10 10 10 10 10 11 11 11 12 12 13 13 13 14 14 14 14 13 13 13 12 12 12 12 13 13 13 13 13 13 13 13
7 7 7 7 7 8 9 9 10 10 10 11 11 11 11 12 12 12 13 13 14 14 15 15 15 15 15 14 14 14 13 13 14 14 13 14 14 14 15 15 14 14 14
9 9 9 9 9 9 10 11 11 11 12 12 12 12 13 13 13 14 14 14 15 15 15 16 16 15 15 15 15 14 15 15 16 16 15 15 15 16 16 16 16 16 16
11 11 11 11 11 11 12 13 13 13 14 14 14 14 15 15 15 15 15 16 16 17 17 17 17 17 16 16 16 16 16 17 17 17 17 18 18 18 17 17 17 18 18
11 11 11 12 12 13 14 15 15 15 16 16 16 16 16 16 16 17 17 17 18 18 17 18 18 18 18 17 17 17 18 18 18 18 19 19 19 19 19 19 19 19 19
13 14 13 14 14 14 15 16 17 17 16 16 17 17 17 18 18 18 18 19 19 19 19 19 19 20 19 19 19 19 19 19 19 19 20 21 21 21 21 20 20 20 20
14 14 15 15 16 16 17 17 17 17 17 17 17 18 18 19 19 19 20 20 20 21 21 22 22 21 21 21 21 20 20 21 21 21 21 22 22 22 22 22 21 21 21
14 16 17 17 17 17 18 19 19 19 19 19 19 19 19 20 20 21 22 22 23 23 23 23 23 23 22 22 22 22 22 22 23 23 22 23 23 23 24 24 23 22 22
16 16 17 18 18 18 19 20 20 20 20 21 20 21 21 21 21 22 23 23 24 24 24 24 24 24 23 23 23 23 23 24 24 24 24 24 24 24 25 25 25 24 24
17 17 18 18 19 19 20 21 22 22 22 22 23 23 23 23 23 23 24 24 25 25 25 25 26 26 25 25 25 24 25 25 25 25 26 25 26 26 26 25 26 26 25
17 18 18 19 20 21 21 23 23 24 24 24 24 24 24 25 25 25 25 25 26 26 26 27 27 27 27 27 26 26 26 26 26 27 27 27 27 27 27 27 27 27 27
18 19 20 20 21 22 23 24 25 25 25 25 26 26 25 25 26 26 26 26 27 27 27 28 28 28 29 29 28 28 27 28 28 29 29 28 29 29 29 28 29 28 28
19 20 21 21 22 24 24 24 25 25 25 26 27 26 26 27 27 27 27 27 28 28 29 29 29 29 29 29 29 29 28 29 29 30 30 31 30 30 30 30 30 30 30
20 21 22 22 23 24 25 25 25 25 26 27 26 26 26 27 28 29 28 28 29 29 29 29 29 28 28 29 30 30 29 29 29 30 31 32 31 31 31 31 31 31 31
21 21 22 22 24 25 26 26 26 26 25 26 25 26 26 27 27 29 29 29 29 30 30 29 29 29 29 29 30 30 30 30 30 30 31 31 31 31 31 32 32 33 33
22 22 22 23 24 25 26 25 26 26 26 26 26 26 27 27 28 29 30 30 29 30 30 30 30 31 30 30 30 30 30 30 30 30 30 31 31 31 31 32 32 33 34
23 23 24 25 26 26 25 26 26 26 26 26 26 27 28 29 29 29 29 29 29 29 30 30 31 30 30 30 30 31 31 30 30 30 31 31 32 32 32 32 33 33 34
22 23 24 26 26 26 27 28 28 26 26 26 28 28 28 28 29 29 29 29 30 30 30 30 30 30 30 30 30 30 30 30 30 31 31 31 31 32 31 32 33 33 33
23 24 24 26 26 26 26 27 27 25 26 28 29 28 28 29 29 29 29 29 29 30 30 30 30 31 31 30 29 29 29 29 29 30 30 29 30 30 29 30 31 32 32
24 25 25 26 25 25 25 26 26 26 27 27 29 28 29 28 28 29 28 29 30 30 30 30 31 31 30 30 29 29 28 28 28 28 29 28 29 29 28 28 29 30 31
23 24 25 25 25 24 25 26 27 27 27 28 28 29 29 29 29 28 28 29 29 29 29 29 29 30 30 29 29 28 28 28 28 27 27 27 27 27 27 27 28 29 30
22 24 24 24 23 24 25 26 27 27 27 28 29 29 29 28 28 28 28 28 28 28 28 28 28 28 28 28 28 27 28 27 27 27 26 25 26 26 26 26 27 28 28
21 22 23 23 23 24 25 26 26 26 27 28 29 29 28 27 26 26 26 27 27 27 27 27 27 27 27 26 26 27 26 26 26 26 25 24 24 25 25 24 23 24 25

GEFSSE_500_meanwind_198.txt.gz
Wind_Speed
4 5 5 5 6 6 6 7 8 8 8 9 10 10 10 10 10 10 10 10 10 10 10 10 10 10 10 11 11 11 12 12 12 12 12 11 11 11 11 11 10 10 10
6 6 7 7 8 8 8 8 9 9 10 10 11 11 11 11 11 11 11 11 11 11 11 11 11 11 11 12 12 13 13 13 13 13 13 12 12 12 11 11 11 12 12
8 8 8 8 9 9 10 10 10 10 10 11 11 12 12 12 12 12 12 12 13 12 12 12 12 12 13 13 13 14 14 14 14 14 13 13 13 13 13 13 13 13 13
10 10 10 10 11 11 12 11 11 11 11 12 13 13 13 13 14 14 14 14 14 14 14 14 14 14 14 14 14 14 15 15 15 15 14 14 14 14 14 14 14 13 13
12 12 12 13 13 13 13 13 13 13 13 14 14 15 15 15 15 15 15 15 15 15 15 15 15 15 15 15 15 15 15 16 16 16 16 15 15 15 15 14 15 15 14
14 14 14 14 14 14 14 14 15 15 16 16 16 16 16 16 16 16 16 17 17 17 17 17 17 16 16 16 16 16 16 16 17 17 17 16 16 16 16 16 16 16 16
15 15 14 14 15 15 16 16 16 16 17 17 17 17 17 18 18 18 18 18 18 18 18 18 18 18 17 17 18 18 17 17 18 19 19 18 18 18 18 18 18 18 17
15 15 15 15 16 16 16 17 17 17 17 18 19 19 19 19 19 19 19 19 20 20 20 20 19 19 19 18 19 19 19 18 19 19 19 18 18 18 19 19 19 19 19
16 16 16 16 16 17 17 17 18 18 19 19 20 20 20 20 20 21 21 21 21 20 21 21 21 20 20 20 20 20 20 20 20 20 20 19 20 20 20 21 21 21 20
16 16 17 16 18 18 18 18 19 19 19 20 21 21 22 22 22 22 22 22 22 21 21 21 21 21 21 21 21 20 21 21 21 22 21 21 21 21 22 22 22 21 21
16 17 17 17 18 19 18 19 20 21 21 21 22 23 23 23 23 23 23 23 23 22 22 22 22 22 22 21 21 22 22 22 23 23 23 22 22 22 23 23 22 22 22
17 18 18 19 20 20 19 20 21 22 22 23 23 24 24 24 25 24 24 24 24 23 23 23 23 23 23 23 23 23 24 24 24 24 23 23 24 24 24 24 24 24 24
18 19 20 20 21 21 20 21 22 22 23 24 25 25 25 26 26 25 25 24 24 24 24 24 24 24 24 24 25 25 25 25 25 25 24 25 26 25 25 25 25 26 26
19 20 20 21 22 22 22 22 23 23 23 25 25 26 26 26 26 26 25 25 25 26 27 26 25 25 26 25 26 26 26 26 26 26 26 26 27 27 27 27 26 26 26
19 20 21 22 22 23 24 24 25 25 25 25 25 26 26 27 27 27 27 27 27 27 27 27 28 27 26 26 26 26 26 26 27 27 27 26 27 27 27 27 28 27 27
19 20 21 22 23 24 25 25 26 26 26 26 27 26 26 27 28 29 29 28 28 28 28 28 28 27 26 26 26 26 26 26 27 28 28 27 27 27 27 28 29 29 29
21 21 21 22 23 23 24 25 26 27 27 28 28 28 27 28 29 30 30 30 29 28 28 27 27 27 27 26 26 26 26 26 27 28 29 29 28 28 28 29 30 30 30
22 22 22 23 24 24 25 25 26 27 28 29 29 28 28 29 30 30 30 29 28 27 27 27 27 27 28 27 27 27 28 27 27 28 29 29 29 29 29 29 29 30 30
22 23 23 24 24 25 26 27 27 28 28 28 28 29 29 30 30 30 29 28 28 28 27 27 27 28 29 29 29 29 29 29 29 29 29 29 30 29 30 31 30 31 32
22 23 25 25 26 26 26 27 28 28 29 29 28 28 28 29 30 30 29 29 29 28 28 29 29 29 30 30 29 29 29 29 29 28 29 29 29 30 30 30 30 31 32
22 23 25 26 26 26 27 26 27 28 28 28 28 28 29 29 30 30 29 29 29 29 29 29 29 29 29 29 29 29 28 28 29 29 29 29 30 30 30 30 31 30 31
22 24 25 25 26 26 26 26 27 27 27 28 28 28 29 30 29 29 29 29 29 28 28 29 29 28 28 28 28 28 28 28 28 28 28 29 30 30 30 29 30 30 30
23 24 25 25 26 26 26 26 27 27 28 28 29 29 30 29 28 28 29 29 29 28 29 28 27 28 28 28 28 28 29 28 27 28 28 29 29 30 29 29 29 30 30
23 24 24 25 25 25 26 27 27 27 28 28 29 29 29 28 29 29 29 28 28 28 28 28 27 27 27 27 27 27 28 28 28 27 28 28 29 28 27 27 28 28 29
23 24 25 24 23 24 25 26 26 26 27 28 28 28 28 28 28 28 28 28 28 28 28 27 27 27 27 27 26 26 26 27 27 28 28 28 28 27 26 26 27 27 27
23 23 23 22 23 24 25 25 25 26 27 28 28 27 27 27 28 27 28 28 28 27 27 26 26 27 27 26 26 25 26 25 26 26 26 25 25 25 25 25 25 24 24

GEFSSE_500_meanwind_204.txt.gz
Wind_Speed
6 6 5 5 5 6 7 7 8 9 9 10 11 12 12 13 13 14 14 14 14 14 14 14 13 14 14 14 14 13 14 14 14 13 12 12 12 12 12 12 12 11 11
7 6 6 6 7 8 8 8 9 10 10 11 11 12 13 13 14 15 15 15 15 15 15 15 15 15 15 15 15 15 14 14 14 14 13 13 13 12 12 12 13 13 12
7 7 8 8 8 9 10 10 11 12 12 12 12 13 13 14 15 16 16 16 16 16 16 16 16 17 17 17 16 16 16 15 15 15 14 14 14 13 13 13 14 14 13
8 8 9 10 10 11 11 12 12 13 13 14 13 14 15 15 16 16 16 16 16 16 17 17 17 18 18 17 17 17 17 16 17 16 15 15 15 14 14 14 14 15 15
9 10 10 11 11 12 12 12 13 13 14 14 14 15 15 16 16 16 16 17 17 17 17 18 18 19 19 19 18 18 18 18 18 17 17 16 16 16 16 16 16 16 16
11 12 12 12 12 12 13 13 13 14 14 15 15 16 17 17 17 17 17 17 17 18 18 18 19 19 19 19 19 19 19 19 19 18 17 17 17 17 18 17 17 17 17
12 12 12 12 12 13 14 14 14 15 15 16 17 17 18 18 18 18 18 18 18 18 19 19 20 20 20 20 21 21 21 20 19 19 19 18 18 19 19 18 18 18 19
11 12 13 13 12 13 14 15 15 16 17 17 17 18 18 18 18 18 18 18 19 20 20 20 21 21 21 21 22 22 21 21 21 19 19 20 20 20 20 20 19 19 20
12 12 13 13 13 14 14 15 16 16 17 17 17 18 18 18 19 19 19 20 20 20 20 21 21 21 21 21 22 22 22 22 22 21 21 21 21 22 22 22 21 21 21
13 13 13 13 13 14 15 15 16 16 17 18 18 19 19 19 20 20 20 21 21 21 21 21 22 22 22 22 22 23 23 23 23 23 22 23 23 23 23 23 23 23 22
13 13 13 14 14 14 15 16 16 17 17 18 19 20 20 20 20 21 21 21 21 20 21 22 22 22 23 23 23 23 23 23 23 24 23 23 24 25 25 25 25 24 23
15 14 14 14 15 15 15 16 17 18 18 19 20 20 20 21 21 21 21 21 21 21 22 22 23 23 23 23 23 24 24 24 24 24 24 24 24 25 25 25 25 25 25
15 15 14 15 15 16 16 17 18 18 19 20 20 20 21 21 21 22 22 22 22 22 23 23 23 24 24 24 24 24 24 25 25 25 25 25 25 25 25 25 26 27 26
14 14 14 15 15 15 16 17 17 18 18 20 20 21 22 22 22 22 23 23 23 23 24 24 24 24 25 25 25 25 25 25 25 25 24 25 25 25 26 26 26 27 27
15 15 16 16 16 16 17 17 18 18 20 21 21 21 21 22 22 22 23 23 24 24 24 25 25 25 25 26 25 25 24 25 25 25 24 25 26 26 26 27 28 28 28
16 17 17 17 17 17 16 18 19 20 21 22 21 21 21 22 23 23 24 25 25 25 25 25 25 25 25 25 25 25 25 25 25 26 26 26 26 26 27 28 28 29 30
17 17 18 18 18 18 18 18 19 20 21 21 21 22 22 22 23 24 25 26 26 25 25 25 26 26 25 25 25 25 25 25 26 26 26 26 26 27 27 27 28 28 29
17 18 18 19 19 19 19 19 20 20 20 21 22 23 23 23 24 25 25 26 26 26 25 25 25 26 26 26 25 25 26 26 26 26 27 27 27 27 28 28 28 29 30
17 18 19 19 19 20 20 20 20 21 22 22 23 24 24 25 25 25 25 25 25 25 25 25 25 26 25 26 26 26 26 26 26 27 27 27 28 28 28 28 29 30 30
18 19 19 19 20 21 21 21 21 22 22 23 24 24 26 26 26 26 26 26 25 25 25 25 25 25 25 26 25 26 26 26 26 26 27 27 28 28 28 29 29 30 30
19 20 20 20 20 21 22 22 22 22 23 23 24 25 26 27 26 27 27 27 27 26 25 25 26 26 26 26 26 26 26 26 27 27 27 28 28 29 30 30 30 31 31
20 20 21 21 21 22 23 23 23 23 23 22 24 25 27 27 26 26 26 27 27 27 26 26 26 26 26 27 26 26 25 26 27 27 27 28 29 30 31 31 30 31 31
21 20 21 21 22 22 22 23 24 23 23 23 24 25 26 25 25 25 26 26 26 26 26 26 25 25 26 27 26 26 25 26 27 27 28 28 29 29 30 30 30 30 31
20 19 20 21 21 22 22 23 23 23 23 24 25 26 26 26 26 26 26 25 25 25 25 24 24 25 25 25 25 25 26 26 26 26 27 28 28 28 28 29 29 30 31
20 19 20 21 22 22 22 22 22 23 24 24 25 25 26 26 26 25 24 23 23 24 24 24 23 23 23 24 24 25 26 26 27 27 27 27 27 27 27 27 28 29 30
20 20 21 22 23 23 23 23 23 23 23 24 24 25 26 25 25 23 23 23 22 22 23 22 22 22 22 22 23 23 24 25 27 27 26 26 26 26 26 26 26 26 28

GEFSSE_500_meanwind_210.txt.gz
Wind_Speed
4 5 6 6 7 7 7 7 7 8 8 8 8 9 10 10 11 11 11 12 12 13 12 13 13 13 14 14 14 14 14 14 14 14 14 14 13 13 13 13 13 13 13
5 5 5 6 7 8 7 8 9 9 9 9 9 10 10 11 11 12 12 13 13 14 14 14 14 14 15 15 15 15 15 15 15 15 15 15 15 14 14 14 14 14 14
6 6 6 6 8 9 9 9 10 10 11 11 11 12 12 13 13 13 14 14 14 14 15 15 15 16 16 16 16 16 16 16 16 16 16 16 16 16 16 16 16 16 16
6 7 7 7 8 9 10 10 10 11 12 12 12 13 13 14 14 14 15 15 15 15 16 16 16 17 17 17 17 17 17 17 17 16 17 17 17 17 17 17 17 17 17
7 8 9 9 9 10 11 11 11 12 12 13 13 14 14 15 15 15 15 16 16 17 17 18 18 18 18 18 18 18 18 18 18 17 18 18 18 18 18 17 18 18 17
9 10 10 10 10 11 11 11 12 12 12 13 14 14 15 16 16 16 17 17 18 19 19 19 19 19 20 20 20 20 19 19 19 19 19 19 19 20 19 19 18 18 18
10 10 10 11 11 11 11 12 12 13 13 14 14 15 15 16 17 17 18 18 19 20 20 20 21 21 21 22 22 22 21 21 21 20 20 20 20 21 21 20 20 20 20
10 10 11 11 11 11 12 12 12 13 14 14 15 16 16 17 18 18 19 19 20 21 21 21 22 23 23 24 24 23 23 22 21 21 21 22 22 22 22 22 22 21 21
12 11 11 12 12 12 13 13 14 14 15 16 16 16 17 18 19 19 20 20 20 21 22 23 23 23 24 25 25 24 24 23 22 22 23 23 23 23 23 23 23 23 23
12 12 13 13 13 14 14 14 15 16 17 17 17 17 18 19 20 20 20 21 21 22 23 23 23 24 24 25 25 25 25 24 24 24 24 24 24 24 24 24 23 24 24
13 14 14 14 15 14 14 15 16 17 17 17 17 18 19 19 20 20 21 21 22 22 23 23 24 24 25 25 25 26 26 25 25 26 25 24 24 24 25 24 24 24 24
14 14 14 14 14 15 16 16 17 18 18 17 18 19 20 20 21 21 21 22 22 23 23 24 25 26 26 26 26 26 26 26 25 26 26 26 25 25 25 24 24 25 25
14 14 15 15 15 16 17 17 18 18 18 18 19 20 20 21 21 22 22 22 23 23 24 25 26 27 27 27 27 27 27 27 26 26 26 26 26 26 26 25 25 26 26
14 15 15 15 16 17 17 18 18 19 19 19 20 21 21 21 22 23 24 24 24 25 25 26 27 27 28 28 27 27 27 27 27 27 26 26 26 26 26 27 27 26 27
15 15 16 17 17 18 18 18 18 19 20 20 21 21 22 22 22 24 24 25 26 26 27 27 27 28 29 29 29 28 28 27 28 28 28 27 26 26 27 28 28 27 28
16 16 16 17 18 18 18 19 19 20 20 21 21 21 22 22 23 24 25 26 26 27 28 28 29 30 30 30 29 29 28 28 29 29 28 28 27 27 27 28 28 28 29
17 17 18 18 18 18 19 19 20 20 21 22 21 21 22 23 24 24 25 26 26 27 28 29 31 31 31 31 30 29 27 28 28 28 28 28 28 28 28 29 29 29 30
18 18 19 19 18 18 19 19 19 20 22 22 22 23 23 24 25 25 25 26 27 27 29 29 30 31 31 31 31 31 30 29 28 28 28 28 29 29 29 29 30 30 30
19 19 20 19 19 19 19 19 20 20 22 23 23 23 24 24 25 26 26 27 28 28 29 29 29 30 30 31 31 31 31 30 30 29 29 30 30 31 30 30 30 30 30
21 21 21 21 20 19 18 19 21 22 22 22 23 24 24 25 25 26 27 27 28 29 29 29 29 30 30 30 29 29 30 30 30 30 30 30 30 31 31 31 30 29 30
22 22 23 21 20 18 19 20 22 22 22 23 23 24 24 25 26 27 27 28 28 29 29 29 29 28 28 27 27 28 28 29 29 29 30 30 30 30 30 30 31 30 30
22 24 23 21 20 20 21 21 22 23 23 24 24 25 25 26 27 27 27 28 28 29 29 29 28 27 26 26 26 26 26 28 28 27 27 28 29 29 29 30 30 30 30
23 23 22 20 21 22 23 23 23 24 23 24 25 25 25 25 26 26 27 27 28 28 28 27 27 27 26 26 26 26 26 26 25 25 26 27 27 28 29 29 29 30 31
24 23 21 21 22 22 22 23 23 24 24 24 24 25 26 26 26 27 27 28 28 28 27 26 25 25 26 26 26 26 26 25 25 24 25 26 26 26 27 27 29 30 30
23 22 22 23 24 23 23 23 23 24 23 24 24 25 26 26 26 26 26 27 27 26 26 25 24 24 25 24 25 25 25 24 24 23 23 24 25 26 26 27 27 28 29
23 23 24 24 24 23 23 23 23 24 24 24 25 25 25 25 25 25 25 25 25 24 24 24 24 24 23 23 24 24 24 24 24 23 23 23 24 26 26 26 27 28 29